GFSSE_sfc_thetae_057.txt.gz
Theta_e
344 349 356 358 361 363 363 364 365 363 362 362 361 362 362 361 361 363 363 359 358 361 359 358 360 361 362 362 361 363 364 365 366 364 362 361 360 363 363 362 359 354 360
347 350 358 362 362 363 363 364 364 366 362 362 362 362 361 362 361 360 362 360 359 362 357 358 360 358 359 361 362 362 364 366 365 363 363 361 360 361 364 360 359 357 359
346 351 357 363 362 363 364 363 364 362 362 363 363 364 362 362 361 362 361 360 358 361 360 357 360 361 360 360 361 362 362 362 362 362 362 354 355 361 361 361 360 359 359
348 352 355 362 363 363 363 364 364 363 363 363 362 363 362 361 361 361 361 361 361 360 360 360 359 358 360 361 361 361 360 360 359 360 353 350 354 360 360 360 358 358 358
350 352 355 364 364 363 362 362 365 364 363 362 362 361 362 361 360 360 360 360 359 359 359 358 358 358 359 359 359 359 359 360 361 357 350 349 350 356 360 359 359 358 356
350 355 363 364 363 364 363 364 363 363 363 362 363 362 361 362 361 361 359 360 360 359 359 359 358 357 357 357 358 358 359 359 358 353 352 355 352 360 359 359 359 357 358
352 357 360 366 365 363 364 363 363 363 363 363 363 361 361 361 361 361 358 360 359 359 359 358 358 358 358 357 356 356 363 361 351 351 352 351 354 361 359 359 359 359 359
352 356 358 365 364 365 364 363 363 363 362 363 361 363 363 362 362 360 360 360 359 358 359 359 359 358 357 356 353 354 361 361 354 351 351 352 358 361 359 359 359 359 354
352 353 355 358 361 364 364 364 363 363 363 362 363 363 364 362 360 360 360 359 358 359 359 359 359 358 355 354 354 356 357 360 349 350 352 352 360 359 358 357 355 355 356
350 351 352 354 356 354 356 363 362 363 363 363 362 362 362 361 361 360 360 362 358 359 359 359 358 358 357 357 356 356 358 358 350 351 352 354 360 358 358 358 359 358 357
347 349 351 351 352 353 354 358 361 364 363 363 361 362 361 351 351 355 359 362 359 358 359 359 359 358 357 357 358 358 355 349 349 351 352 358 360 357 356 355 356 357 357
341 345 348 348 352 353 356 354 354 356 355 354 354 354 353 350 350 353 358 362 359 358 359 360 352 348 348 345 350 354 352 348 349 351 353 360 361 357 358 355 355 355 355
340 343 345 349 352 348 352 354 354 353 352 351 351 351 353 352 347 347 349 350 348 356 349 355 344 341 343 345 349 351 348 344 348 350 357 361 361 357 358 357 356 357 355
337 342 346 348 349 349 352 352 351 351 352 347 343 347 349 348 347 347 350 345 344 348 345 349 342 341 345 347 349 350 346 347 350 352 356 361 360 357 357 357 356 355 354
342 345 348 347 348 348 351 349 345 346 351 349 350 347 347 349 350 350 350 348 348 350 349 347 344 342 346 349 349 345 344 346 346 350 352 361 361 359 357 355 355 353 354
343 345 346 342 339 344 351 347 345 346 349 350 348 346 347 350 353 349 346 350 349 346 346 345 348 345 346 348 343 343 346 347 347 347 350 354 361 361 359 357 354 354 356
345 346 345 344 344 346 350 348 348 349 352 349 348 349 352 349 353 353 347 347 344 348 350 349 346 346 345 344 340 343 345 347 347 349 349 348 353 362 361 356 356 356 353
345 345 348 350 346 349 352 349 348 348 348 350 352 355 356 354 352 351 349 349 345 350 344 339 337 343 341 339 340 340 341 345 346 347 348 349 350 349 357 359 357 357 353
340 344 344 345 347 348 351 344 343 347 347 350 353 356 354 354 352 348 348 352 346 348 345 343 341 341 341 338 337 339 340 342 345 348 346 347 347 350 351 358 358 358 355
340 340 344 347 347 345 350 348 347 350 347 351 354 355 355 353 349 343 346 351 346 344 341 344 343 341 343 337 338 339 343 339 339 340 345 350 350 347 347 350 353 354 358
340 339 342 346 347 351 349 346 345 342 344 347 352 358 356 357 354 350 348 350 346 343 338 347 340 339 339 340 330 333 331 338 339 340 340 341 347 348 346 346 348 347 350
340 340 344 348 347 349 347 347 347 346 343 346 352 356 355 354 353 348 348 351 348 347 349 346 346 341 342 337 333 337 328 330 338 335 338 338 339 347 348 350 348 347 344
341 343 345 349 347 349 346 346 350 346 347 343 346 351 355 357 356 357 354 354 349 349 347 346 346 345 336 337 339 335 325 326 330 336 332 336 334 338 340 343 349 348 346
339 344 346 349 348 348 348 343 345 342 341 343 346 351 354 354 356 357 353 353 352 352 350 348 351 346 338 338 334 341 338 336 328 325 336 336 335 339 339 339 342 342 340
341 342 347 349 348 347 349 344 344 342 347 345 349 352 352 356 356 356 355 355 351 349 348 349 350 348 347 343 335 336 333 336 340 334 326 330 335 336 338 338 340 341 341
341 342 346 349 346 346 347 349 342 342 343 345 345 346 354 354 356 358 356 355 353 352 352 350 352 349 347 349 344 344 334 334 337 335 332 331 330 333 338 339 338 342 343

GFSSE_sfc_thetae_063.txt.gz
Theta_e
341 347 359 361 362 363 361 361 359 359 363 361 360 361 361 360 359 358 359 359 357 359 361 361 361 362 363 362 362 361 361 361 361 360 361 361 359 359 359 359 357 351 357
344 350 361 363 362 363 362 361 360 359 363 360 361 362 361 361 360 358 360 357 357 358 358 359 360 360 362 363 362 362 362 361 362 361 362 360 360 358 359 358 358 354 355
345 351 358 363 363 363 364 361 360 361 362 361 361 362 361 361 361 358 360 359 356 360 359 358 359 361 361 363 362 362 362 361 361 360 361 353 353 360 358 359 358 353 351
348 353 357 363 364 363 363 361 360 362 362 361 361 361 361 360 359 360 359 360 358 357 359 358 358 359 361 361 360 361 361 360 359 359 350 351 355 359 356 357 358 356 355
351 353 357 364 364 363 363 362 361 363 362 361 361 360 360 360 360 360 359 358 358 357 357 359 358 359 359 359 359 359 360 360 359 353 348 348 349 353 359 358 356 357 356
350 352 360 363 363 363 363 361 361 363 361 361 361 360 360 359 359 358 358 358 358 357 356 357 358 359 360 359 359 359 361 360 357 351 352 355 351 357 356 355 357 355 351
349 354 356 364 361 361 361 362 361 362 361 361 360 360 360 360 358 359 358 359 358 358 357 356 357 358 357 357 358 360 360 359 350 349 350 351 352 358 358 357 357 352 351
352 354 357 363 362 362 363 362 363 362 361 361 360 360 360 359 359 359 359 358 358 357 356 356 357 357 357 359 360 360 360 358 352 349 350 351 358 359 359 358 354 353 352
354 354 355 356 360 363 362 363 362 362 361 361 361 360 359 358 359 359 359 358 358 358 357 357 357 356 357 359 359 360 358 357 348 348 352 353 358 358 358 352 356 357 355
353 354 352 353 354 355 356 363 362 362 361 361 361 361 359 359 358 357 360 360 359 358 358 356 355 356 359 360 358 360 358 356 347 349 351 352 358 355 355 355 353 352 353
350 349 350 351 351 353 354 358 361 362 361 360 358 360 358 349 350 352 356 358 359 359 358 356 357 358 358 357 359 360 356 347 347 349 350 357 359 358 358 357 355 355 353
346 347 349 349 350 352 356 353 353 355 353 352 352 349 348 347 348 351 355 358 358 359 359 356 356 356 352 347 350 354 348 347 348 348 351 358 358 354 355 357 356 353 354
345 349 347 347 349 350 350 350 350 350 350 351 350 349 347 349 347 348 349 349 347 354 350 344 341 340 344 344 346 346 346 347 347 349 354 359 359 355 353 353 353 354 352
344 346 346 348 348 347 350 349 349 348 348 347 347 346 346 344 344 344 345 343 344 342 341 343 338 342 345 346 344 342 345 346 346 349 353 359 359 357 355 354 355 352 351
341 343 344 347 345 346 348 348 348 348 348 347 345 346 347 343 342 344 342 341 342 344 341 342 338 340 342 344 342 342 343 345 347 349 350 357 359 357 355 354 354 353 352
341 342 343 346 345 346 346 346 346 347 349 345 343 345 346 346 344 345 344 343 344 343 344 342 342 340 339 343 342 342 343 345 347 349 349 351 357 357 355 354 354 353 352
340 342 343 344 345 345 346 346 344 344 348 345 344 343 345 349 346 343 343 343 344 342 343 343 343 342 340 342 338 340 341 344 346 348 349 350 352 357 357 354 353 353 355
339 341 344 348 344 345 345 346 342 342 344 345 344 341 346 350 349 344 343 342 341 344 342 338 340 340 339 337 335 340 341 342 343 345 347 348 349 353 355 359 356 355 353
340 342 341 343 342 344 343 344 344 342 344 345 344 346 346 351 350 346 343 344 342 341 337 336 337 338 336 335 335 338 341 341 342 344 344 344 344 347 346 354 359 358 354
341 342 341 341 342 344 342 341 341 343 344 345 346 349 350 348 348 345 345 344 343 338 338 338 336 335 337 334 337 336 336 338 341 341 342 345 344 344 344 344 346 350 356
342 340 338 338 342 344 338 337 340 339 341 344 347 351 349 347 344 343 345 345 342 338 336 340 335 336 337 333 328 329 329 335 335 339 341 341 343 344 345 344 344 347 348
339 339 338 339 342 344 341 340 342 341 341 343 348 350 350 348 344 344 345 345 339 336 338 342 338 338 335 332 327 327 321 323 331 333 335 339 340 344 345 345 344 344 345
338 338 338 339 342 343 342 342 342 342 340 340 345 347 350 350 349 345 345 345 343 341 342 341 341 336 328 331 332 327 318 318 324 330 330 333 336 337 342 344 344 343 342
338 340 340 340 342 342 341 342 341 338 336 338 342 346 349 351 349 348 348 348 344 344 342 342 345 340 331 329 329 335 330 328 322 321 328 331 331 332 337 340 343 344 344
338 338 340 341 342 343 341 342 341 338 339 339 341 344 346 348 349 351 349 349 344 346 344 343 345 342 337 337 327 331 329 330 330 325 322 326 330 331 334 336 338 339 342
337 339 341 341 341 342 341 338 340 340 339 339 338 341 344 347 347 350 348 347 347 345 344 343 345 342 341 341 336 333 329 330 331 330 326 325 325 329 332 334 334 335 337

GFSSE_sfc_thetae_066.txt.gz
Theta_e
339 346 359 360 361 360 359 359 360 362 359 359 360 360 359 358 358 358 358 358 359 361 362 360 363 363 363 361 362 360 361 361 361 361 360 360 360 359 358 357 357 351 356
343 348 360 362 362 359 359 359 360 362 360 360 361 361 359 358 358 360 358 356 357 359 360 361 360 361 362 362 362 361 362 362 361 361 360 359 358 358 358 359 356 354 357
345 351 357 363 363 361 360 359 360 361 359 361 361 361 361 360 358 359 357 357 359 358 358 359 360 361 361 362 362 362 362 361 360 360 359 355 355 358 358 356 352 352 355
348 353 356 362 363 363 360 360 361 360 360 362 361 361 360 360 360 359 360 357 357 357 358 358 359 360 360 361 362 362 360 361 360 358 354 356 353 357 358 357 357 352 351
351 354 356 363 363 362 362 361 361 361 360 361 360 360 359 360 360 360 359 359 357 358 358 358 358 359 359 360 360 361 360 360 359 354 352 353 352 357 358 357 357 354 353
350 353 360 363 363 363 361 361 361 361 361 361 360 360 358 359 358 358 357 358 358 357 358 359 359 359 358 358 358 358 360 358 357 354 356 356 354 354 358 358 354 352 356
348 353 357 364 363 363 361 361 360 361 360 359 360 360 359 357 358 358 357 357 357 357 357 358 357 357 357 359 360 360 359 358 353 354 353 354 356 359 358 357 352 351 353
351 353 356 362 360 360 362 361 361 361 360 360 360 358 359 357 357 357 358 359 357 357 358 357 357 358 359 360 361 360 359 358 353 352 354 355 358 359 358 354 354 353 353
353 353 355 354 358 363 362 361 359 360 360 360 359 360 357 358 357 357 359 358 357 357 358 357 357 358 359 360 360 359 358 356 351 353 354 355 357 359 352 356 357 355 354
352 353 352 354 355 355 357 361 361 360 361 361 360 358 358 358 358 358 359 360 357 357 358 357 357 359 359 360 360 359 358 356 351 354 355 356 358 354 355 353 352 354 352
352 349 350 352 353 354 355 358 361 361 359 359 358 359 355 351 353 354 358 358 358 356 355 355 357 357 358 360 360 358 355 350 352 352 353 357 358 357 358 357 356 353 355
344 349 349 350 351 353 356 354 354 356 353 354 353 351 350 350 351 353 357 359 359 357 355 355 356 357 352 352 357 356 351 351 351 353 354 358 358 356 355 355 354 354 352
344 348 348 348 350 351 351 352 352 352 352 352 351 350 351 350 350 350 351 351 352 355 349 345 343 346 348 349 351 350 349 350 351 353 356 358 357 353 355 353 354 353 353
343 347 347 348 348 349 351 350 350 350 350 349 349 350 349 347 348 348 348 347 348 345 348 344 343 346 348 348 349 348 348 350 350 353 356 357 358 356 352 352 354 351 350
343 345 346 347 347 347 349 349 349 349 350 348 348 348 349 347 347 347 347 345 346 347 347 343 343 345 346 348 346 346 348 349 350 353 355 355 356 354 353 352 352 351 351
343 342 344 346 346 347 347 348 348 349 350 349 347 348 349 349 347 347 347 346 347 347 346 346 345 346 344 347 345 346 347 349 351 352 354 354 355 354 354 352 352 351 352
341 342 342 344 345 345 346 347 347 348 350 349 348 347 347 349 346 346 347 347 348 346 348 348 347 346 345 345 344 345 346 348 349 352 353 354 355 355 355 354 352 352 354
340 340 343 348 345 345 345 346 345 345 348 348 348 346 346 349 349 346 346 348 346 349 347 344 345 345 343 342 342 344 345 346 348 350 351 352 354 355 356 358 358 355 353
340 341 342 345 344 344 345 346 345 344 345 347 348 347 347 350 351 347 347 349 347 346 343 342 342 345 342 341 341 342 345 346 346 346 348 350 350 353 353 354 357 358 354
340 342 343 344 343 344 344 345 345 344 345 347 347 348 350 351 350 348 349 348 347 344 344 344 344 342 343 341 339 340 344 345 347 347 347 347 348 348 348 349 349 350 354
340 341 341 341 342 343 340 339 341 341 344 346 348 351 352 351 349 348 348 347 347 343 343 344 341 343 342 339 339 338 337 338 341 343 347 347 347 349 349 350 350 350 350
339 340 338 340 342 344 342 341 343 342 345 347 349 352 352 351 347 347 348 347 345 341 346 346 345 344 340 338 335 334 327 332 336 339 341 343 345 347 348 350 350 350 351
338 339 338 339 342 344 342 343 342 342 343 345 348 349 352 351 349 349 349 348 346 343 346 348 346 343 337 337 339 335 328 327 330 337 339 338 341 343 345 348 350 350 350
338 339 340 339 342 344 342 342 341 340 338 342 345 349 352 354 351 350 349 350 349 348 348 348 349 345 339 337 337 339 337 335 331 331 336 338 340 338 341 343 346 349 351
339 339 339 339 342 344 343 343 341 340 340 342 345 348 350 352 352 351 352 352 349 349 350 349 351 347 344 342 337 339 337 338 336 333 331 335 339 340 341 343 345 346 347
340 339 339 338 340 343 343 342 342 340 340 340 341 344 346 350 352 352 353 350 349 351 350 349 351 350 349 348 343 340 338 339 338 336 334 334 333 339 340 342 342 344 345

GFSSE_sfc_thetae_069.txt.gz
Theta_e
346 354 359 360 360 360 359 362 361 360 360 360 360 359 359 358 359 359 359 359 361 362 361 364 363 363 362 361 363 362 361 360 361 360 361 359 359 358 358 356 359 355 357
349 356 361 362 360 360 360 362 362 360 361 361 361 360 359 358 359 359 357 358 360 360 360 362 361 361 362 362 361 361 361 360 361 360 359 359 360 358 357 359 359 356 356
349 356 358 364 361 360 360 361 361 360 362 362 362 362 360 359 359 357 357 359 358 358 360 360 360 360 361 360 361 361 360 361 361 360 359 355 356 358 353 353 356 354 351
350 355 357 364 363 360 360 361 361 360 363 362 362 361 360 359 359 358 358 359 358 359 359 359 360 360 361 361 361 361 361 361 361 359 355 351 353 358 358 355 351 351 353
353 356 358 363 364 361 360 362 361 360 362 361 361 360 360 360 359 359 358 358 359 358 360 360 360 361 360 360 361 361 361 360 360 356 352 357 354 357 358 356 353 356 356
353 355 361 363 362 362 361 363 361 361 362 361 359 359 360 359 359 358 358 358 358 358 360 360 360 360 358 358 359 360 359 359 357 355 356 356 353 358 358 352 356 357 355
352 356 358 364 363 362 362 361 362 362 361 360 361 360 359 359 359 358 357 357 357 358 360 359 358 358 359 359 361 359 358 358 357 356 356 356 357 358 356 352 352 353 353
352 355 359 362 363 362 362 361 361 361 360 361 360 360 359 358 358 356 357 358 357 359 358 358 359 359 360 361 361 360 359 358 355 356 355 357 358 359 354 355 354 354 356
353 355 359 359 359 361 362 361 360 360 360 359 361 359 359 358 358 359 359 358 358 359 358 358 360 359 362 361 361 359 358 356 354 355 354 355 359 355 357 358 356 353 354
353 355 355 355 361 361 361 361 361 360 361 360 359 359 360 359 360 359 360 360 358 358 358 358 359 360 359 361 359 359 358 355 355 356 356 356 358 356 354 353 355 353 355
351 355 356 358 359 362 361 362 361 361 360 360 359 360 358 357 357 358 361 359 358 356 357 358 358 358 360 361 360 358 352 353 352 353 351 356 356 357 357 357 354 356 353
347 352 355 358 358 359 358 362 361 358 358 359 360 360 358 358 359 359 360 359 357 355 357 357 358 356 355 359 358 355 351 354 353 353 354 357 357 355 356 356 354 353 353
346 350 354 358 360 358 361 358 357 357 358 359 360 359 359 357 358 359 359 357 359 354 352 354 353 353 355 357 356 355 352 353 352 353 353 356 355 354 356 353 355 353 355
344 349 355 356 359 359 359 356 358 355 357 355 357 360 358 353 355 356 354 356 356 353 352 351 352 355 355 356 355 355 353 352 352 353 354 355 356 354 352 354 354 352 352
343 348 353 356 359 359 360 359 357 355 356 356 357 358 358 355 354 356 355 355 356 354 352 351 354 353 355 354 355 354 353 351 353 353 354 355 355 354 353 353 353 352 351
346 348 353 355 358 358 358 360 357 356 356 356 357 358 359 359 358 356 354 356 357 358 355 354 353 354 354 353 353 354 352 352 354 355 355 355 354 354 355 352 353 352 353
347 349 351 353 355 356 358 358 355 354 355 356 358 360 359 361 360 355 358 356 356 359 358 359 357 356 353 352 352 353 354 353 353 355 356 357 357 355 355 355 353 352 352
346 349 352 350 353 355 356 357 354 355 356 358 360 358 357 359 361 360 358 360 357 359 356 355 355 352 351 351 352 354 355 354 353 355 356 356 357 355 356 355 358 356 354
346 349 350 352 351 354 357 356 356 357 356 358 360 360 357 358 360 359 357 357 358 355 353 353 353 354 351 350 351 353 355 356 356 353 355 356 356 355 356 353 355 357 356
346 348 349 351 353 355 354 356 353 354 355 357 358 360 358 359 360 359 357 358 358 353 352 353 355 353 353 351 346 349 355 356 356 355 355 355 357 355 354 356 357 355 351
345 347 349 351 354 353 350 349 351 350 353 354 356 359 359 360 361 360 362 357 357 354 355 355 352 353 350 352 348 347 349 350 349 350 353 354 353 354 355 356 357 356 356
344 346 349 351 354 354 351 353 353 354 354 358 358 360 360 361 361 359 360 356 357 352 356 355 355 351 351 350 345 345 336 340 346 349 352 350 351 353 353 355 356 358 359
344 346 348 351 354 355 354 353 354 355 356 354 355 356 359 361 356 358 360 358 357 355 354 357 354 353 345 348 349 344 336 333 341 348 349 350 352 352 352 353 354 356 358
344 347 350 351 353 355 356 353 353 350 348 351 354 355 358 361 359 357 359 360 359 354 358 357 358 355 351 345 349 350 350 347 337 337 346 349 352 350 353 352 353 354 357
344 346 348 351 352 356 356 356 352 353 352 354 355 359 361 363 361 359 359 360 360 358 360 360 359 351 353 349 348 349 349 348 350 344 337 342 350 352 352 353 352 353 355
345 346 347 349 352 354 355 354 354 354 354 351 353 354 355 358 366 362 361 362 361 360 360 359 362 360 360 358 355 353 348 346 346 345 343 347 345 349 352 352 354 354 354

GFSSE_sfc_thetae_072.txt.gz
Theta_e
350 354 360 359 360 360 361 361 360 360 360 360 359 359 359 360 360 360 360 362 362 362 364 363 363 363 363 363 362 361 361 363 362 361 360 359 359 359 360 358 361 356 358
352 355 362 363 360 360 364 361 361 361 361 360 360 359 359 360 359 357 358 361 360 361 362 362 362 362 363 362 361 361 361 362 363 360 361 360 358 359 360 360 360 353 354
351 356 359 363 361 360 363 361 362 363 362 363 363 360 361 359 358 358 359 358 360 361 362 361 361 362 362 361 361 361 361 360 360 359 363 354 349 354 357 356 352 352 354
351 354 357 363 363 360 363 361 361 363 362 363 362 361 360 360 359 359 360 358 360 360 360 361 362 362 361 362 362 362 362 360 358 357 350 352 354 357 352 353 355 355 354
352 355 361 364 363 361 363 361 361 363 362 361 361 361 361 360 359 359 360 360 358 360 361 361 361 361 360 362 362 361 361 360 361 358 354 352 354 358 354 356 358 355 356
352 354 363 364 362 362 362 363 361 362 362 360 360 360 360 360 359 359 359 359 359 360 361 361 361 359 359 361 361 360 359 357 363 352 350 356 358 354 353 358 358 354 357
351 355 360 364 363 362 363 363 363 362 361 360 360 360 359 359 359 358 358 359 360 359 360 359 358 359 360 361 360 359 359 356 353 356 355 356 358 356 353 354 353 357 357
350 354 359 363 363 362 361 362 362 361 361 361 360 359 359 358 358 359 359 358 360 359 359 360 360 360 361 361 360 360 358 358 354 355 356 356 358 356 355 354 356 357 357
352 355 356 361 363 362 362 361 362 361 361 361 359 360 359 359 359 359 358 360 359 359 359 360 360 361 362 361 360 360 357 354 353 355 354 352 358 357 358 357 354 356 356
352 356 355 354 355 360 360 361 362 361 361 360 360 359 359 360 359 359 362 361 360 359 360 360 360 361 361 360 359 357 356 356 353 353 349 351 358 354 354 355 355 357 353
351 354 349 354 360 363 362 363 361 360 361 360 359 357 358 355 356 356 360 359 359 359 360 359 359 361 361 360 358 355 357 350 349 348 352 356 356 357 357 355 355 353 353
348 350 350 356 356 359 358 362 358 355 354 356 357 359 356 358 361 355 359 358 358 359 359 360 356 356 360 357 355 355 350 351 349 349 354 358 356 356 356 355 355 354 354
349 348 352 355 358 358 360 354 352 353 355 358 359 358 358 355 354 353 355 356 356 356 355 357 356 356 357 354 351 348 349 348 349 348 354 355 355 355 354 356 354 353 354
348 348 352 356 358 358 356 351 353 353 355 354 357 359 357 353 354 354 353 355 356 354 354 356 356 359 360 357 353 350 348 348 348 348 353 357 357 354 354 357 353 352 353
346 348 351 356 358 359 356 353 353 354 353 354 356 359 356 354 356 355 356 355 355 355 354 356 356 357 357 356 355 354 351 352 351 350 350 355 356 354 354 353 352 352 351
346 350 352 354 359 360 357 358 356 354 355 354 355 359 362 357 358 356 356 355 355 356 356 356 357 355 353 353 354 354 352 353 355 356 354 354 355 354 355 352 352 351 353
345 349 351 353 357 358 357 358 355 354 354 354 356 362 362 361 362 362 357 357 356 359 360 359 358 357 351 352 354 354 353 354 354 355 355 355 355 355 356 355 353 352 352
346 349 352 351 354 356 356 357 355 356 356 358 357 358 360 362 361 360 355 355 358 358 356 355 356 351 350 350 351 351 352 352 354 355 354 356 355 355 355 356 357 357 355
348 350 352 353 354 356 358 355 356 359 357 358 358 358 362 362 359 358 357 356 361 356 355 353 354 354 349 348 347 350 353 351 354 351 355 358 354 356 353 355 355 356 356
349 350 352 352 355 358 357 358 355 355 357 359 359 360 361 362 363 362 356 359 358 353 352 353 355 354 352 350 345 346 352 351 355 355 353 352 354 358 356 358 358 354 355
349 348 351 352 357 355 353 352 352 352 355 356 359 361 361 362 364 365 359 359 359 353 357 359 354 353 346 352 345 343 345 350 349 352 354 353 352 355 356 359 356 354 355
347 346 350 352 357 356 352 354 354 355 355 357 359 362 360 361 363 360 361 358 358 352 358 358 358 347 347 352 342 343 337 341 344 348 352 351 351 354 355 355 358 360 359
346 346 350 354 357 357 356 356 359 359 362 364 359 357 360 363 363 363 364 358 361 356 350 358 356 355 342 351 353 342 336 333 341 345 347 346 352 352 353 353 356 358 361
346 349 351 356 358 358 360 357 359 351 348 351 355 357 360 363 361 361 364 363 363 356 359 357 357 357 354 342 347 350 355 350 339 335 342 345 348 347 350 351 349 352 360
347 348 351 357 359 359 361 360 356 357 352 354 354 365 363 366 362 361 364 364 363 358 361 361 362 361 351 347 346 349 353 352 354 342 334 338 343 346 349 352 353 355 359
348 349 351 355 359 360 361 362 360 358 357 351 354 366 354 360 359 363 362 365 364 362 361 359 363 361 359 356 350 351 348 346 344 345 340 343 342 346 350 352 355 358 359

GFSSE_sfc_thetae_075.txt.gz
Theta_e
351 355 360 359 360 361 361 361 361 361 360 359 359 358 360 360 360 361 362 362 364 364 363 364 363 364 363 362 362 362 362 362 363 361 360 360 359 358 358 358 360 355 358
352 356 362 362 361 362 360 360 361 361 361 360 359 359 361 359 357 359 362 361 362 363 363 363 364 362 362 362 361 361 361 361 364 362 360 360 359 359 357 356 356 355 358
352 355 358 363 361 364 361 361 361 362 361 360 360 361 359 358 360 359 359 362 362 362 362 363 363 362 362 361 362 361 360 359 360 361 359 344 350 356 352 353 354 356 358
349 351 353 362 362 362 361 362 362 361 360 360 361 361 361 360 361 361 359 361 361 361 362 362 362 362 362 361 362 361 359 356 356 359 353 351 346 352 356 357 356 357 357
348 352 358 363 361 362 361 362 361 362 360 361 361 361 360 359 359 360 360 359 361 361 362 362 362 362 361 362 362 361 359 355 357 356 353 354 347 356 357 357 356 358 357
351 354 361 363 361 362 363 361 362 361 360 361 361 360 360 360 360 360 360 360 361 361 361 361 360 361 362 361 360 359 356 356 360 350 353 353 348 357 358 355 358 358 356
351 356 361 365 362 362 362 361 361 361 360 361 360 360 359 360 359 359 360 361 361 361 360 360 359 360 362 360 359 358 356 359 354 355 352 351 351 356 354 357 358 357 356
348 354 359 362 362 362 361 361 361 361 361 360 359 360 359 358 360 359 360 361 360 361 361 361 360 361 361 360 359 356 357 359 355 355 352 349 357 357 355 356 357 356 355
351 351 356 359 362 362 361 361 361 361 361 361 360 360 359 360 358 359 361 360 359 360 360 359 359 362 361 360 359 356 355 362 352 354 348 353 357 358 357 354 357 357 355
350 350 355 356 354 359 360 360 361 361 361 361 360 360 361 360 359 361 362 360 360 360 361 361 361 361 360 359 356 355 356 359 352 349 350 354 358 354 355 357 356 353 355
349 349 348 350 357 362 360 361 359 361 360 360 358 358 359 356 356 356 361 360 361 360 360 362 362 361 360 358 356 357 358 351 347 349 352 357 360 357 355 354 354 354 354
345 343 348 352 354 357 353 361 358 356 356 357 356 360 357 356 356 356 359 360 360 360 360 360 362 362 361 352 351 357 349 347 348 349 353 359 358 357 357 356 356 356 354
344 344 352 353 359 354 355 351 351 352 351 352 361 359 359 353 354 352 356 356 358 359 355 355 358 357 357 350 346 344 346 346 347 349 354 357 356 354 355 354 353 353 354
344 345 350 352 357 359 352 350 356 351 351 353 357 363 356 350 353 357 354 354 358 356 354 351 353 358 354 352 348 346 346 345 345 347 357 358 355 354 357 354 352 352 353
342 345 350 354 362 362 355 352 355 351 351 351 354 362 358 354 358 360 359 353 357 354 353 355 357 358 355 354 351 350 348 348 348 348 347 358 355 354 353 353 352 352 351
344 346 351 354 360 358 356 361 363 355 351 355 355 358 362 356 364 354 355 354 356 359 361 358 355 357 353 351 352 353 354 351 353 355 351 352 357 356 354 352 351 351 352
344 348 350 353 356 358 356 356 359 357 353 354 357 360 359 359 361 360 354 355 355 359 360 358 356 357 352 351 355 353 350 355 351 357 352 354 354 357 356 354 352 351 351
344 349 351 350 353 354 355 356 358 355 355 356 359 360 360 360 362 363 355 357 355 358 354 359 355 354 356 351 355 353 349 350 351 351 350 354 356 355 357 358 358 357 354
345 349 350 352 353 354 357 356 360 362 357 357 362 358 362 361 361 360 356 356 365 365 363 351 356 354 350 350 348 354 351 350 352 348 350 352 351 352 355 359 359 357 357
349 350 352 351 356 357 355 358 356 353 357 364 362 360 361 361 360 359 357 358 363 357 352 356 358 349 352 350 342 345 349 347 349 348 349 350 352 353 351 355 358 355 358
348 348 351 352 359 355 352 350 351 352 358 359 362 362 361 361 361 362 355 357 362 359 359 357 353 353 347 350 349 344 343 346 346 346 349 349 349 351 351 352 354 354 356
348 348 351 353 359 356 354 359 353 354 356 357 361 361 361 361 362 360 363 359 362 354 359 356 360 357 347 349 351 345 336 339 342 344 346 346 348 349 348 352 352 356 357
347 346 350 354 358 359 361 356 356 357 362 358 359 355 359 361 360 362 363 367 359 363 351 358 355 359 352 345 355 345 340 335 339 345 346 345 349 347 348 350 351 354 358
345 345 350 354 358 358 360 360 365 352 351 350 357 359 358 363 361 361 362 362 362 358 361 356 352 362 355 345 343 346 355 352 346 333 341 343 345 346 348 348 349 351 356
345 346 350 356 360 363 362 365 357 357 351 353 356 359 366 364 362 360 363 363 363 359 363 362 361 361 350 347 346 346 351 347 351 343 333 337 343 345 347 349 350 350 356
345 346 351 358 361 361 360 361 362 360 359 357 351 354 354 354 357 362 361 363 364 365 363 359 363 361 362 359 353 350 350 344 346 341 337 345 341 345 347 349 352 354 355

GFSSE_sfc_thetae_078.txt.gz
Theta_e
349 353 362 363 362 363 362 362 362 361 360 359 359 360 359 360 362 364 365 366 367 367 366 365 365 363 363 362 363 362 361 363 363 362 361 360 358 358 359 360 360 353 359
352 354 364 364 363 362 362 362 360 361 360 359 360 362 359 358 360 363 363 363 366 365 363 364 364 363 362 362 361 361 361 363 364 364 361 361 358 355 358 358 359 355 355
351 355 358 364 364 361 362 362 362 362 361 360 362 361 360 361 359 360 362 362 363 363 364 363 364 363 362 363 361 360 360 361 362 362 357 348 346 354 354 358 359 358 356
351 353 353 364 365 361 363 363 363 362 360 361 361 360 362 362 361 361 361 362 363 363 363 363 363 363 362 362 360 359 359 359 357 359 348 341 351 358 358 358 358 357 356
347 350 356 364 364 361 363 361 362 361 361 361 361 360 360 363 361 360 360 362 362 362 362 361 363 362 362 361 359 358 359 360 363 355 346 346 352 355 357 359 358 357 357
349 351 361 364 363 362 363 362 362 362 362 362 361 361 360 359 361 360 361 361 362 362 361 361 361 363 361 360 360 359 362 363 361 349 345 351 353 356 358 358 357 358 356
348 352 357 365 365 364 362 361 361 361 362 361 362 361 360 360 360 361 361 362 362 361 361 361 361 361 360 358 359 360 361 365 353 348 347 348 351 358 358 358 357 357 356
349 350 355 364 363 362 361 362 362 361 361 360 362 360 360 360 362 361 361 361 362 362 361 361 362 361 360 358 358 358 359 364 353 348 351 352 357 357 358 357 355 357 354
352 354 356 357 361 362 362 362 362 362 362 360 361 360 362 362 361 361 360 362 361 361 360 360 362 361 360 358 357 357 361 365 352 349 351 353 359 358 356 357 357 357 355
351 351 354 355 354 356 358 362 361 361 361 360 360 360 363 363 361 359 361 363 360 360 361 362 362 361 359 357 357 355 358 363 347 349 349 353 357 357 358 354 354 354 357
349 350 349 353 355 360 359 359 361 360 361 360 359 357 360 357 355 356 361 363 361 361 361 361 360 359 359 358 358 358 358 353 349 350 352 359 359 355 354 354 354 353 351
344 345 349 354 355 356 350 359 357 356 356 358 358 355 356 359 356 356 360 363 361 361 362 362 362 360 358 351 354 359 355 347 349 350 353 361 360 356 356 355 357 355 352
344 350 352 358 357 355 357 358 355 356 355 359 363 360 358 354 355 355 358 356 357 359 353 359 360 358 354 355 350 348 346 346 346 348 356 360 357 354 355 353 353 354 353
346 349 351 356 352 354 357 353 350 354 353 354 357 363 362 360 352 350 358 356 359 351 348 351 357 358 356 352 348 347 344 346 348 351 356 358 357 356 357 352 352 352 352
344 348 354 356 361 364 351 360 351 352 353 354 358 364 362 350 359 356 351 359 348 351 350 354 355 358 350 350 352 352 347 349 345 349 354 361 358 356 353 353 352 351 351
342 346 355 356 358 363 357 349 355 349 355 356 359 363 360 354 365 359 351 360 358 350 358 352 359 351 351 352 351 352 351 351 355 346 350 355 359 359 356 354 351 351 352
342 351 354 356 358 361 364 359 350 361 356 350 361 357 355 360 358 354 359 350 355 366 364 356 359 362 352 352 355 356 351 354 352 354 350 350 355 361 359 357 355 351 351
344 351 352 351 352 359 363 366 364 358 355 357 361 360 355 360 360 348 359 353 357 363 361 347 358 344 354 345 353 356 351 353 353 355 354 354 351 351 359 360 360 357 355
347 353 352 352 353 356 363 363 359 357 356 361 354 357 365 365 365 358 356 353 359 359 359 347 353 356 353 351 349 352 351 351 351 348 351 353 354 354 354 360 361 360 358
349 353 354 355 358 362 359 366 359 357 350 353 355 353 363 366 366 367 354 365 366 362 354 354 358 352 344 344 342 345 349 350 352 351 350 351 352 353 353 354 356 355 360
348 350 354 359 361 358 356 354 350 354 357 358 366 361 358 354 368 369 363 365 359 352 345 365 361 353 355 350 355 349 350 347 346 350 350 349 351 353 353 353 359 356 353
347 350 355 359 361 361 357 361 351 361 361 355 359 364 360 361 368 366 360 363 358 359 363 363 359 351 355 349 348 348 335 343 345 344 350 348 350 349 351 354 353 356 358
344 349 353 359 360 360 365 363 357 348 351 346 349 360 363 364 365 365 365 368 350 365 361 362 358 348 355 350 353 351 337 334 344 345 346 347 348 351 348 350 355 356 357
344 350 354 358 360 358 365 361 365 357 350 358 358 360 362 365 363 360 368 368 362 352 348 363 359 355 355 351 350 350 351 352 345 337 346 345 351 345 349 352 350 355 357
345 347 353 356 361 359 362 367 361 362 357 354 356 354 362 367 364 360 365 369 361 352 350 360 364 362 362 352 341 354 353 354 352 350 336 340 347 347 349 351 352 352 356
345 344 351 355 360 363 360 363 364 360 347 344 355 350 360 359 363 362 362 369 365 351 358 352 365 364 365 364 359 357 354 348 347 346 342 342 343 348 349 350 351 355 357

GFSSE_sfc_thetae_081.txt.gz
Theta_e
346 353 363 362 362 362 361 362 360 360 359 359 360 359 360 363 364 366 366 365 364 364 365 364 364 364 363 362 362 362 362 365 364 361 359 357 359 361 361 359 355 351 359
350 355 364 365 362 361 360 360 361 360 360 362 362 358 358 362 363 363 364 363 363 366 364 363 363 362 362 361 362 362 361 363 364 362 358 356 355 358 360 359 355 355 358
350 355 358 365 362 361 362 364 362 362 361 361 361 361 361 359 361 363 363 363 363 364 364 364 363 363 362 361 361 360 360 362 362 357 353 347 349 358 359 359 356 358 358
352 354 358 364 364 364 363 364 362 361 361 361 361 362 362 361 362 362 362 362 362 363 363 364 363 362 361 361 360 358 359 361 361 355 348 351 351 359 358 357 357 355 356
350 353 358 365 365 363 362 362 360 361 361 361 360 360 361 361 360 362 362 362 363 362 362 363 363 361 361 361 360 360 359 361 359 352 349 347 348 356 358 357 357 355 357
348 354 363 365 362 362 363 362 362 361 362 361 361 360 359 361 360 362 362 363 363 362 362 363 362 361 360 360 361 363 364 362 353 346 349 353 347 359 357 357 358 354 356
349 354 359 366 364 363 362 362 362 362 361 361 361 361 360 362 361 362 362 362 362 362 362 363 360 360 361 360 360 364 363 357 345 345 345 347 352 359 358 357 358 354 354
349 354 356 363 365 362 363 362 362 361 360 361 360 359 360 361 361 361 361 362 362 362 362 362 359 359 360 360 360 361 362 359 351 349 349 350 356 359 356 357 354 356 354
350 352 356 357 359 362 363 362 362 361 361 360 360 361 361 360 361 361 362 362 361 363 363 361 360 359 360 360 360 363 361 357 348 349 350 351 358 359 357 357 357 355 354
350 352 351 354 353 353 355 362 362 361 361 360 360 360 361 360 360 360 364 364 361 361 361 361 360 358 359 359 359 361 363 357 346 347 349 352 359 359 354 355 354 357 353
349 350 350 350 351 352 353 357 360 361 360 360 358 357 358 350 350 355 362 364 361 361 360 359 357 356 355 356 361 362 360 348 349 350 351 357 358 353 354 354 352 351 352
344 347 349 350 352 351 355 353 353 354 353 351 346 348 349 347 348 354 359 363 361 362 361 359 358 356 356 347 350 360 352 348 349 350 353 360 359 356 356 357 355 352 351
343 349 348 348 350 346 350 351 350 351 350 350 345 347 348 352 350 351 352 353 352 357 351 356 354 353 351 349 349 349 346 346 344 348 356 360 359 355 354 353 353 353 353
343 347 350 348 347 348 353 353 348 348 349 349 349 353 351 349 347 346 349 350 351 347 345 347 349 354 353 352 350 342 343 346 346 348 354 358 358 357 353 353 353 353 351
342 348 346 343 345 349 348 348 350 347 345 348 348 353 350 349 345 347 345 347 350 344 343 345 346 350 345 343 344 345 342 344 347 350 349 357 359 360 354 353 353 351 352
346 346 347 349 350 348 345 344 344 347 346 349 352 349 350 350 348 338 343 349 346 347 345 347 347 345 344 341 342 342 342 344 343 348 352 353 360 358 356 354 352 353 353
346 348 348 348 350 349 346 341 345 348 349 349 348 341 347 347 348 348 347 347 347 347 345 346 347 349 343 345 344 343 343 344 341 343 348 349 354 359 358 355 355 353 352
347 346 348 350 350 346 348 345 350 348 349 351 353 348 350 347 342 341 350 344 348 351 342 343 347 341 342 339 341 343 342 345 342 344 345 346 349 350 358 359 359 357 354
345 345 344 343 346 345 347 351 346 349 352 349 350 350 353 354 350 347 352 343 351 353 348 344 344 344 342 341 343 344 343 343 340 347 346 347 345 347 349 357 361 360 358
343 340 347 346 347 345 347 346 349 350 346 348 348 346 351 354 354 350 349 350 351 348 343 342 343 345 340 341 340 340 340 343 343 343 341 349 348 347 348 348 354 354 360
344 341 346 346 349 344 345 346 345 342 344 347 349 348 352 347 355 353 349 347 347 346 343 342 347 340 347 339 341 338 342 342 341 341 343 343 344 349 348 347 349 349 350
341 341 347 348 348 345 344 347 345 344 349 349 351 351 353 350 354 354 348 347 347 347 349 347 345 344 343 341 335 337 331 334 336 336 341 342 340 344 345 346 351 350 347
341 343 347 348 348 347 346 349 347 347 345 340 343 347 354 354 355 354 348 351 346 348 346 345 343 340 342 336 337 338 332 332 331 333 335 336 335 341 342 345 345 346 347
341 345 347 350 349 347 351 348 345 342 342 343 343 347 354 356 353 354 354 351 346 344 343 350 352 346 344 337 338 344 340 340 332 325 335 333 337 340 336 339 346 346 347
343 345 347 351 349 344 349 350 346 342 348 345 347 351 351 352 354 355 352 353 348 346 346 345 347 348 348 345 338 344 339 344 343 337 324 327 336 338 337 342 342 344 346
343 344 346 350 348 347 348 351 347 342 335 336 342 343 348 350 354 355 355 352 351 347 347 345 347 347 346 349 350 344 345 335 336 338 330 328 330 335 337 340 340 343 347

GFSSE_sfc_thetae_084.txt.gz
Theta_e
345 354 363 362 362 363 362 359 359 359 360 360 359 362 363 364 364 364 364 364 364 364 363 363 364 362 357 357 361 362 361 360 360 359 359 359 359 359 355 356 358 354 358
350 356 363 363 362 360 360 360 360 361 363 359 359 360 361 362 363 363 363 363 363 365 363 362 362 362 361 360 361 360 361 362 362 357 356 359 359 358 356 359 359 355 356
351 356 359 363 361 361 363 362 361 362 361 361 362 360 361 361 362 363 363 363 363 364 363 362 361 361 360 360 360 359 360 360 356 354 356 349 352 358 356 358 359 358 358
353 354 358 363 364 364 363 362 361 361 361 362 362 361 361 362 362 363 362 362 363 364 363 362 361 361 359 358 358 359 361 360 357 357 349 350 352 358 359 355 355 358 358
353 356 356 363 365 362 362 361 361 361 361 360 361 361 361 361 362 362 362 363 362 362 365 362 362 361 359 358 358 358 362 360 358 352 347 347 349 355 357 355 356 356 358
353 355 361 363 362 362 361 361 361 362 361 361 360 361 360 361 362 362 363 362 362 363 363 361 361 360 360 359 363 363 359 359 356 349 347 352 350 357 359 355 354 355 354
352 356 357 365 363 363 361 362 361 361 360 361 361 361 361 361 362 362 362 361 362 362 362 360 361 361 359 363 364 360 356 354 344 345 347 349 352 358 359 355 354 353 353
352 356 357 362 362 362 361 362 361 360 361 360 359 360 361 361 362 362 362 362 362 362 362 360 360 360 359 361 362 362 357 353 349 347 348 349 357 356 357 355 356 353 353
354 353 354 355 359 362 362 361 360 361 360 360 360 360 361 361 361 361 362 362 362 362 361 360 359 359 360 361 366 363 358 356 347 348 349 349 360 357 357 356 354 353 353
351 354 353 352 353 353 355 361 361 361 360 360 359 360 361 361 361 361 364 363 362 361 360 360 358 359 359 360 362 364 359 355 345 349 351 352 359 354 355 354 354 352 352
349 349 351 350 350 351 352 356 360 361 360 359 358 361 357 349 351 355 361 361 360 359 359 359 358 357 357 356 360 363 355 347 347 348 348 357 356 352 353 351 350 351 351
345 346 348 348 348 349 355 352 351 352 350 350 349 350 348 346 348 354 359 361 360 358 358 358 357 357 355 346 349 357 347 347 348 349 352 358 357 355 356 353 350 350 349
345 346 347 348 348 348 350 350 349 349 348 342 344 345 345 350 350 350 350 351 350 355 351 353 349 350 350 349 346 347 347 347 346 349 355 358 360 354 356 356 355 352 352
343 345 347 347 346 344 348 348 347 347 347 345 343 346 345 346 346 345 347 348 348 345 345 346 346 349 351 351 349 345 345 342 343 348 353 358 359 353 352 352 352 351 350
343 345 346 345 344 347 349 347 345 346 346 345 348 350 349 342 341 344 345 346 349 341 339 343 344 347 342 343 342 342 341 343 345 348 348 355 359 357 352 352 351 351 351
345 345 342 343 345 347 346 344 343 344 343 346 347 348 347 345 343 341 342 346 346 343 341 343 345 343 340 340 340 341 341 344 346 348 348 349 358 358 355 353 353 353 354
345 344 345 347 345 342 341 343 344 343 346 347 346 344 349 348 345 340 341 343 342 342 345 344 345 343 340 342 340 340 340 341 344 347 350 349 352 357 354 354 354 353 352
344 344 348 349 345 342 338 343 345 346 348 348 347 345 347 348 346 344 344 343 346 349 342 343 341 340 341 337 339 340 339 340 341 342 345 346 347 350 355 357 358 356 354
344 344 342 346 344 345 344 345 345 348 347 348 348 348 349 349 341 343 347 343 349 347 341 342 341 341 341 339 340 341 341 340 339 343 343 343 344 346 346 353 360 360 357
344 344 343 344 342 344 346 343 345 344 345 347 346 347 348 351 352 346 344 346 351 345 342 340 342 343 338 337 340 338 339 340 340 341 343 345 343 345 344 346 349 354 359
342 342 340 342 341 342 343 343 342 340 340 346 348 346 347 347 352 345 348 346 345 343 341 341 340 338 341 337 338 335 338 338 339 340 340 344 345 346 345 346 344 348 348
337 342 342 344 341 340 341 344 343 342 345 346 348 347 349 348 350 351 348 345 344 344 344 345 341 341 341 339 332 333 327 329 333 334 339 340 340 345 347 347 346 347 347
337 343 342 345 341 341 343 345 344 345 341 341 343 346 351 350 352 347 348 349 346 346 344 342 339 337 338 335 336 334 328 325 327 330 334 337 337 338 341 343 345 349 348
338 344 345 346 343 342 346 343 341 340 338 339 342 345 351 351 350 351 349 347 345 342 342 346 349 345 340 337 335 340 337 336 327 322 330 332 332 337 337 339 342 343 343
341 344 345 345 345 344 347 345 342 341 345 343 345 344 348 349 350 351 351 347 342 341 342 342 346 344 346 342 338 340 339 341 338 329 322 326 331 335 336 336 337 342 343
341 343 347 345 344 341 345 347 344 340 341 339 341 343 346 347 349 352 351 348 349 346 346 342 343 344 343 344 344 341 339 333 334 335 328 324 326 330 335 335 338 340 342

GFSSE_sfc_thetae_087.txt.gz
Theta_e
344 354 361 361 361 361 360 358 359 359 359 360 363 361 363 363 363 363 363 363 363 363 363 361 356 356 357 358 359 359 358 359 358 359 359 359 355 356 359 359 357 350 358
349 356 360 362 361 359 359 359 359 362 358 358 362 362 362 362 363 362 362 362 361 364 361 361 361 357 361 360 359 360 359 359 359 357 358 359 356 358 358 358 355 351 358
352 355 358 362 359 360 361 360 360 359 359 358 360 361 361 362 362 362 362 361 361 363 361 361 360 360 360 359 359 359 357 355 355 356 358 350 349 357 358 358 358 356 357
353 354 356 362 363 362 361 360 360 359 360 361 359 360 360 362 363 362 362 362 362 363 362 361 359 358 358 358 357 356 354 356 356 356 349 351 352 357 355 357 358 358 357
353 354 354 361 363 361 361 360 360 360 360 360 360 360 361 361 361 362 362 363 363 362 361 361 359 358 357 356 356 356 356 357 356 352 348 348 348 354 355 357 355 357 358
353 352 360 362 362 361 360 360 361 360 360 359 359 360 360 361 362 362 362 362 362 361 361 361 360 359 358 358 357 359 358 357 355 347 349 351 348 357 353 355 354 354 355
351 354 357 362 362 361 361 361 361 360 359 360 359 360 361 362 361 362 361 362 362 361 361 360 359 359 360 361 358 359 357 356 345 346 348 350 350 358 353 353 353 352 355
353 354 356 362 362 360 361 361 360 360 360 360 360 360 361 361 362 361 361 362 362 360 360 360 359 360 361 360 358 355 354 353 349 347 348 350 356 355 356 354 353 352 352
354 353 352 354 358 361 361 359 360 360 359 359 360 360 360 361 361 361 360 360 362 360 359 360 359 359 360 361 359 356 353 354 345 345 348 349 358 357 355 354 352 352 352
351 352 350 351 353 352 353 360 360 359 359 359 359 360 360 360 361 361 359 362 362 359 359 358 358 356 358 360 357 358 356 355 347 348 348 352 357 357 355 354 352 352 351
350 347 348 349 349 350 352 356 358 359 358 358 359 360 354 349 351 355 359 360 359 359 358 358 357 357 358 360 360 359 353 346 346 345 348 356 355 352 351 350 351 351 351
343 346 347 347 347 348 354 350 349 353 349 349 350 347 346 346 349 355 357 359 358 358 357 356 355 356 352 346 351 354 345 346 347 347 348 356 355 354 352 349 349 349 348
344 346 346 345 347 347 349 349 348 346 345 344 345 345 344 347 349 350 349 350 349 354 349 350 349 349 347 345 343 347 345 346 346 348 353 359 354 354 356 354 351 350 350
343 343 345 346 345 344 348 347 346 345 343 339 342 344 345 345 345 345 346 347 347 344 343 344 344 346 348 349 347 344 344 343 343 347 351 355 357 351 350 350 350 349 349
341 343 345 345 344 343 347 346 345 345 344 343 345 345 345 342 340 342 344 344 346 341 339 341 343 344 342 342 347 343 341 341 343 347 348 354 356 354 351 350 350 351 351
341 343 344 344 344 345 345 343 343 343 343 344 346 347 345 340 341 342 341 343 344 342 340 340 343 342 338 338 340 340 340 341 344 346 346 346 355 357 355 352 353 352 353
342 343 342 342 344 344 344 343 342 343 344 345 344 347 346 345 342 338 339 342 341 341 343 343 343 340 339 339 337 338 340 341 343 345 346 346 348 355 354 354 354 353 353
342 341 342 348 344 340 340 342 342 344 346 345 341 344 347 348 345 343 342 342 345 346 341 340 339 338 338 336 337 338 338 340 340 343 346 346 345 348 352 357 356 356 354
342 341 343 342 339 338 342 343 342 345 346 347 344 346 345 348 345 344 344 343 346 345 338 340 339 340 339 337 338 339 338 339 338 342 341 342 342 345 344 350 358 360 357
342 343 343 341 341 340 343 343 343 343 344 345 345 346 348 349 344 345 346 341 348 344 341 339 339 340 337 336 338 337 335 339 339 338 340 343 341 341 343 343 343 349 358
342 340 341 340 340 342 340 340 339 339 339 344 345 345 346 347 349 345 344 345 344 342 340 341 340 337 338 336 336 334 333 337 337 338 339 341 343 344 344 344 344 344 347
340 340 338 340 339 341 341 342 342 340 341 344 346 345 346 348 348 348 345 342 342 342 341 343 341 338 337 337 331 330 325 327 331 333 335 338 339 343 345 346 345 344 344
339 339 339 340 338 339 342 344 343 342 340 341 343 345 347 349 349 349 346 345 343 345 342 341 339 336 333 335 333 332 326 322 326 328 332 336 337 336 338 342 344 345 346
338 341 340 341 337 338 343 342 341 339 337 339 340 344 347 350 349 349 347 347 343 340 342 344 349 342 338 336 335 339 335 333 323 320 327 331 332 332 336 338 340 341 342
340 342 342 342 338 340 342 341 340 338 339 342 344 340 345 347 349 350 348 344 342 339 341 342 343 342 343 340 337 338 336 336 335 325 321 325 328 333 335 335 335 337 339
340 343 343 342 340 342 343 341 340 339 340 339 339 341 344 345 347 349 349 345 343 340 341 341 344 342 341 343 340 341 337 333 335 333 328 324 323 328 333 334 334 336 339

GFSSE_sfc_thetae_090.txt.gz
Theta_e
343 351 361 361 359 361 359 359 360 359 360 361 361 361 362 362 361 362 361 362 362 363 358 358 358 358 357 358 358 358 359 359 360 359 356 355 359 359 358 355 358 354 358
349 355 359 361 360 357 357 357 358 358 358 360 361 361 361 361 360 361 362 363 364 364 358 358 360 361 361 360 359 359 359 359 360 360 357 358 358 359 357 356 358 355 358
353 354 356 362 357 358 358 360 359 357 357 360 360 361 361 361 361 362 362 361 363 363 361 359 360 360 360 361 360 358 356 355 358 358 356 352 353 358 358 359 357 359 358
353 354 355 362 361 359 360 359 359 359 359 359 360 360 361 362 362 361 361 361 364 361 360 359 360 359 359 357 354 355 355 356 358 357 353 354 350 357 358 359 359 358 358
352 353 354 361 361 360 359 360 360 360 359 359 359 360 361 361 362 361 361 360 360 360 361 359 359 358 358 358 357 357 357 357 357 354 352 351 352 355 357 357 358 357 359
351 350 360 362 361 360 360 360 359 360 359 358 360 360 361 361 362 361 361 361 361 361 358 359 359 358 358 356 355 357 357 357 355 353 352 355 353 354 354 354 355 355 355
349 353 356 363 361 360 359 359 359 359 359 359 359 360 361 361 361 361 361 361 361 361 361 359 359 359 360 360 360 359 357 356 350 352 352 352 355 355 353 353 353 356 355
351 353 356 360 360 361 360 358 359 359 359 358 359 360 360 360 361 362 362 362 361 360 360 358 360 360 360 358 357 356 355 355 351 351 352 352 355 357 353 353 352 353 354
353 352 354 355 357 360 359 358 358 358 359 359 359 360 360 361 360 361 362 362 360 359 359 358 358 358 358 359 356 352 353 354 348 350 351 354 357 356 354 352 353 352 353
351 351 351 352 352 352 353 360 359 359 358 359 359 359 360 361 361 360 363 362 360 359 359 357 357 360 360 359 358 355 354 353 349 350 352 352 359 356 355 352 352 352 352
350 348 349 350 349 351 353 356 357 358 359 359 357 359 354 352 354 355 362 361 360 358 357 357 357 356 358 359 359 357 354 349 350 349 354 355 355 351 350 350 351 351 350
344 347 347 348 348 350 354 351 351 352 350 350 348 347 349 351 356 358 358 360 360 358 357 356 355 357 352 351 356 353 347 348 348 350 351 356 354 352 350 349 348 349 348
343 347 346 346 347 348 350 349 347 346 346 347 347 346 348 351 352 352 351 352 351 354 351 351 350 351 349 347 350 349 349 349 349 351 352 357 352 355 355 353 350 350 351
343 345 345 346 346 347 349 347 346 345 342 343 345 347 347 347 347 348 348 350 350 346 347 347 349 350 350 352 350 347 347 348 348 350 352 355 356 350 350 350 350 350 350
341 342 344 346 345 345 347 346 346 346 342 343 345 348 347 345 344 346 347 348 349 344 345 346 348 348 344 345 351 348 346 346 346 349 352 354 354 354 352 350 351 351 352
341 342 344 345 345 344 345 345 345 346 346 346 349 349 347 344 345 346 344 347 347 348 346 346 347 345 344 343 347 346 345 345 347 348 350 349 353 355 357 354 353 353 353
340 343 343 344 345 344 345 345 344 346 346 347 347 348 347 347 345 344 344 346 347 347 347 348 348 345 344 343 343 344 345 345 346 347 348 348 349 354 355 354 354 354 354
342 342 343 347 344 344 344 344 344 345 348 346 345 348 350 350 349 347 347 346 349 351 346 346 345 345 343 343 343 344 344 345 345 347 348 350 350 348 351 354 357 357 356
342 342 341 345 343 342 342 344 344 346 348 347 345 349 349 350 348 349 348 347 350 349 344 345 345 345 345 342 342 345 345 344 345 344 346 347 347 348 349 349 353 357 357
342 342 343 342 341 340 343 343 345 345 347 349 347 350 351 352 346 351 351 349 353 349 346 347 346 346 345 342 340 341 342 343 346 343 344 346 347 347 347 349 350 349 352
341 341 341 339 339 341 341 341 341 341 343 346 348 347 350 351 352 350 348 350 349 349 346 349 348 344 345 344 342 342 340 341 343 344 345 345 347 349 349 350 350 350 350
340 341 340 339 340 341 342 342 343 342 344 347 349 348 350 350 352 350 348 348 348 348 347 349 347 344 343 343 340 337 333 336 339 339 340 343 344 346 348 351 352 353 353
339 340 340 340 341 342 343 344 343 344 343 344 347 349 350 351 350 353 350 349 349 350 348 349 345 345 341 342 341 340 335 331 332 337 340 341 344 344 345 346 348 351 352
340 342 341 340 340 341 344 343 343 341 340 342 345 348 350 353 352 352 351 350 349 347 350 350 352 348 345 343 343 343 342 340 335 330 337 338 340 341 343 345 346 347 350
341 341 341 341 338 340 343 344 342 341 342 344 345 345 349 352 352 353 351 350 348 347 348 350 350 350 349 346 344 344 343 341 340 333 333 334 338 340 343 344 345 345 346
340 341 341 340 338 340 342 342 342 341 342 343 344 343 346 350 351 352 351 349 348 346 347 349 352 349 348 350 346 347 346 343 344 340 337 336 331 339 341 344 344 345 346

GFSSE_sfc_thetae_093.txt.gz
Theta_e
349 357 361 360 359 361 360 361 360 360 361 361 361 363 363 362 362 362 361 361 359 362 362 361 360 360 358 359 360 360 359 359 359 356 360 360 359 356 359 359 360 355 358
352 357 363 361 359 357 357 358 358 359 361 362 362 362 362 361 361 360 360 359 359 361 358 358 361 361 361 360 360 360 359 360 360 358 360 360 359 357 358 360 360 357 358
353 356 358 361 358 358 360 360 357 358 361 361 361 361 362 362 361 360 360 362 362 362 360 361 361 361 360 360 358 356 357 359 358 356 355 356 357 359 357 360 359 359 358
354 356 353 362 362 361 360 361 360 359 360 360 361 361 361 361 361 361 361 362 362 362 361 360 360 358 357 354 355 356 358 359 358 358 354 349 354 359 359 358 358 359 359
355 353 359 362 361 361 359 359 359 360 359 359 360 361 361 361 360 361 360 360 362 362 362 360 360 360 359 359 358 357 358 358 357 353 354 352 354 356 358 358 358 358 358
352 353 361 361 361 361 361 360 360 360 359 360 360 361 361 361 361 360 362 362 361 360 360 358 358 359 357 356 358 357 358 357 354 356 357 353 354 354 355 355 356 357 358
349 359 360 362 360 360 360 360 359 358 359 359 360 360 361 361 362 361 362 361 362 361 360 360 360 360 360 360 359 357 357 357 355 353 357 352 353 355 354 354 355 355 357
354 355 357 360 359 361 359 359 359 360 359 360 360 361 361 361 360 360 361 362 362 360 360 360 360 360 359 358 357 356 355 355 353 351 355 351 357 354 354 353 354 355 357
354 355 356 356 360 359 358 358 359 359 360 360 360 361 360 360 360 361 360 361 361 360 359 359 359 359 359 356 354 353 356 355 354 355 352 355 357 355 353 352 353 353 353
354 354 357 359 359 357 357 359 359 359 359 360 361 361 362 361 361 361 361 362 360 359 358 359 359 359 359 358 355 354 353 351 352 355 350 357 358 357 353 353 352 353 353
351 354 355 354 357 360 359 358 359 359 360 361 361 360 360 359 360 361 362 361 359 357 358 358 358 359 359 359 357 356 351 350 349 353 351 354 356 351 350 351 351 351 350
347 352 355 354 355 357 357 359 360 359 359 358 359 361 360 361 362 358 361 360 359 358 358 358 358 357 354 359 357 353 352 349 349 352 349 353 353 353 351 350 350 350 350
349 350 353 355 358 358 360 356 354 355 355 356 357 358 361 360 359 358 358 356 356 355 353 353 354 355 353 355 357 355 354 352 351 350 352 354 353 355 355 354 351 351 351
348 350 352 354 356 357 356 353 353 353 354 353 354 358 358 355 356 357 356 357 354 354 355 357 357 357 356 357 357 353 356 351 349 352 352 354 356 351 351 350 351 352 352
345 349 350 353 356 356 356 354 353 352 352 353 355 357 356 353 354 357 357 357 355 355 355 357 357 354 353 353 359 357 355 353 350 350 352 353 353 354 354 352 352 352 353
345 347 349 351 355 356 355 357 356 354 355 354 354 355 357 354 356 355 355 356 356 356 357 358 356 354 352 354 356 357 355 353 352 352 352 352 351 354 355 355 354 353 353
346 348 348 350 353 354 356 357 356 356 355 356 356 358 354 357 355 357 355 354 355 360 359 360 356 356 352 351 353 355 355 354 353 354 355 355 354 351 354 355 354 355 355
347 349 350 348 351 352 355 356 355 356 357 355 357 357 357 359 358 358 355 356 360 358 357 356 354 353 352 353 354 354 355 355 355 356 357 357 358 355 352 350 354 356 357
349 351 350 352 352 353 356 355 356 356 358 356 357 358 360 359 358 359 358 357 361 354 355 355 355 357 354 353 352 355 355 355 356 353 355 356 357 357 357 356 351 353 354
350 352 352 352 354 355 355 356 355 355 358 358 356 358 358 359 357 361 359 359 363 360 357 356 357 357 355 352 347 349 353 354 357 357 355 355 357 357 357 358 359 358 354
350 351 352 353 354 352 351 351 351 350 355 356 355 359 359 361 358 363 358 359 360 359 357 360 358 356 352 353 350 350 351 353 355 356 357 356 355 356 357 359 359 358 359
349 351 353 353 354 353 353 353 354 354 354 357 358 358 359 360 361 361 360 358 359 356 359 359 358 353 352 352 346 349 340 343 347 348 352 352 355 357 356 356 357 360 361
348 350 352 354 354 354 355 354 354 354 354 354 355 355 356 359 359 362 360 359 360 360 356 359 357 356 348 353 353 347 342 336 342 347 349 352 356 355 356 355 356 358 359
347 351 353 354 353 353 356 354 355 354 355 352 353 356 357 359 358 360 360 360 362 360 360 360 361 358 357 351 355 353 354 352 343 338 347 350 351 351 354 354 353 355 357
348 349 351 353 353 353 355 356 353 357 353 353 354 357 359 361 360 360 360 361 359 357 361 361 361 362 357 354 352 355 355 353 355 349 340 342 349 351 353 354 353 353 356
347 348 349 352 352 355 354 355 356 354 356 352 353 352 354 357 359 361 359 361 359 358 359 360 361 360 359 358 355 354 352 349 349 349 348 350 344 349 352 354 355 355 358

GFSSE_sfc_thetae_096.txt.gz
Theta_e
351 355 358 358 356 358 360 361 361 361 362 362 364 363 363 363 362 362 362 362 363 363 363 360 361 359 360 361 361 360 359 357 361 361 360 358 358 360 359 359 361 355 359
353 355 360 359 358 357 357 358 359 361 362 362 363 363 362 362 361 361 363 360 361 361 360 361 361 361 360 361 360 361 360 358 359 359 360 361 358 360 360 361 362 358 359
351 355 358 360 357 359 359 357 359 361 362 362 362 362 362 361 360 362 362 359 361 361 361 361 361 361 359 356 356 360 360 358 357 353 358 354 357 359 360 360 360 359 358
353 355 352 362 360 361 361 359 359 360 360 361 362 362 362 362 362 364 362 361 361 362 362 359 358 356 358 358 358 359 359 359 358 358 351 353 355 360 359 359 358 358 359
353 351 359 360 361 360 360 361 360 360 360 360 361 362 362 361 362 362 362 361 361 361 360 360 361 360 359 359 358 359 359 356 351 354 351 355 356 358 358 357 360 359 359
351 355 360 360 359 359 361 361 360 360 361 361 361 360 361 362 362 361 362 361 360 360 359 360 360 360 358 360 358 358 358 353 356 354 349 352 353 356 356 357 360 360 359
350 355 359 361 361 361 361 360 360 360 360 360 361 361 362 361 361 362 362 361 361 362 361 361 362 361 362 360 358 357 357 355 354 353 350 351 354 357 355 355 358 358 358
350 353 357 360 360 360 360 360 360 361 361 361 361 361 360 360 361 362 362 362 361 361 362 361 361 360 358 357 357 356 356 355 353 351 354 357 356 355 353 355 356 357 358
350 353 355 357 360 360 359 360 360 360 361 361 360 360 361 361 362 362 363 362 361 360 360 360 360 360 356 354 354 356 356 354 351 353 353 352 357 354 354 353 353 354 354
352 354 354 356 356 357 357 360 360 360 361 361 362 361 365 361 361 361 363 363 360 359 360 359 359 360 358 355 355 353 351 353 349 348 350 354 359 353 353 353 353 352 352
349 351 351 351 356 360 359 359 359 360 362 361 361 360 360 358 360 359 361 360 359 359 359 359 359 360 361 359 356 353 356 347 348 347 346 356 355 351 352 352 351 350 350
347 348 348 352 352 354 349 359 359 357 358 358 360 362 361 361 362 356 360 359 358 358 358 359 359 357 358 357 354 354 344 347 346 346 348 355 356 355 353 351 351 351 351
348 347 348 353 356 354 353 351 354 354 354 358 362 360 359 355 354 353 354 355 356 357 354 357 356 356 356 355 354 353 352 348 347 347 352 355 353 354 352 352 350 351 352
347 347 349 353 358 356 354 351 351 351 353 352 355 358 356 352 353 354 353 355 356 355 358 359 355 358 359 360 355 355 353 348 348 348 351 355 355 352 351 350 350 351 352
345 345 348 354 358 359 356 353 353 353 350 350 354 358 355 354 356 356 359 356 357 356 357 357 355 355 355 356 356 355 353 352 349 347 345 353 353 354 354 352 352 352 352
345 344 350 353 358 358 357 359 355 352 352 353 354 359 360 356 358 356 357 356 355 356 356 356 356 354 353 352 354 354 353 350 353 351 347 349 353 353 353 354 353 353 353
345 347 351 353 356 358 359 358 355 353 353 353 355 360 360 359 362 361 357 357 356 360 362 358 356 355 350 350 352 353 353 354 353 355 354 352 352 352 353 354 354 354 355
346 348 351 349 353 356 358 358 356 357 356 355 355 357 360 363 363 361 355 355 360 362 359 355 353 350 350 350 352 353 353 353 355 355 355 358 358 355 353 352 351 354 356
349 350 351 352 353 356 360 357 358 361 358 357 358 357 362 361 362 359 357 359 363 359 357 356 353 355 352 352 350 352 352 353 354 351 354 359 356 360 359 356 354 354 355
350 353 353 354 357 359 359 360 357 356 358 358 358 358 362 361 362 361 358 361 363 360 355 355 358 356 356 352 347 347 351 353 355 354 352 354 356 358 358 363 363 358 358
349 352 355 355 360 361 358 352 352 351 355 355 357 362 362 361 361 365 357 360 363 359 360 363 358 356 349 353 348 345 346 350 351 353 355 355 354 356 358 359 363 362 360
350 351 354 357 360 360 357 358 355 355 355 357 358 362 361 361 363 362 362 359 362 356 363 363 361 352 351 354 346 346 338 340 345 347 352 352 354 354 354 358 362 363 362
350 353 355 358 360 360 360 358 361 362 360 361 357 357 359 361 362 363 362 362 361 361 355 362 360 359 346 354 358 348 339 336 341 346 348 349 353 353 356 358 360 362 363
349 354 357 359 360 360 362 357 357 362 356 359 355 357 358 362 360 361 363 362 363 360 361 361 360 360 360 350 354 355 360 357 341 336 343 346 351 350 355 357 357 358 363
350 352 356 359 361 360 361 360 354 352 361 352 355 364 362 363 362 360 364 363 364 358 364 364 363 364 358 354 351 356 359 357 358 344 336 339 346 351 355 356 357 359 362
350 352 354 358 360 360 360 360 359 355 354 361 359 355 355 357 360 361 362 363 365 362 362 361 366 363 362 360 357 357 352 349 348 349 345 345 343 347 354 357 359 360 361

GFSSE_sfc_thetae_099.txt.gz
Theta_e
348 353 358 358 358 357 359 360 360 360 361 360 362 362 363 362 361 362 363 362 363 363 361 361 360 360 360 360 360 358 360 360 361 359 358 361 360 359 359 359 362 355 359
350 352 359 358 359 358 358 359 361 362 361 363 363 362 362 362 361 360 363 362 363 362 360 361 361 359 359 360 360 358 358 360 359 360 359 361 361 360 360 361 362 358 359
350 354 358 358 356 359 358 360 362 362 362 362 363 362 361 362 362 362 362 361 362 362 361 361 360 356 356 360 360 360 358 359 357 358 365 352 357 361 360 360 360 360 359
350 354 351 360 359 359 358 360 361 360 362 363 363 362 362 363 363 361 362 362 363 363 359 358 357 358 358 360 359 359 357 357 358 364 354 352 353 360 358 359 359 359 359
351 350 360 360 360 360 360 360 360 360 361 362 362 362 362 361 362 362 362 362 360 359 360 359 359 359 358 359 359 358 356 355 357 355 352 354 354 356 359 358 360 359 359
350 352 358 360 360 360 361 360 360 360 362 362 362 362 362 363 362 361 361 361 360 360 360 360 361 359 360 359 358 357 357 357 363 348 348 352 353 357 359 359 360 360 359
348 352 356 360 361 360 360 360 360 361 362 361 362 361 362 363 363 361 361 361 362 362 361 362 363 362 359 359 357 357 356 359 348 353 348 351 353 357 357 359 359 358 357
348 351 355 361 361 360 360 360 360 361 361 362 361 361 362 361 363 363 362 362 362 362 362 361 359 357 357 356 356 355 357 360 352 354 351 349 356 355 355 356 357 357 356
349 350 352 355 360 361 360 360 361 361 362 360 361 361 362 362 362 363 362 362 361 361 360 361 361 357 355 355 356 353 355 357 352 354 348 350 357 354 354 354 354 354 353
347 348 350 353 356 353 357 360 361 361 362 362 361 361 363 362 363 362 363 362 360 361 359 360 361 358 357 355 353 350 353 356 346 346 347 353 356 353 352 352 351 351 351
349 346 348 349 354 357 355 358 361 361 363 362 360 361 362 357 356 360 363 360 359 360 360 360 360 360 359 358 356 355 356 347 344 343 346 355 354 351 351 351 351 351 351
343 343 349 350 350 355 349 358 358 356 357 358 360 362 365 360 360 353 358 358 358 359 360 360 360 362 363 356 354 356 345 345 345 343 350 356 356 353 352 351 351 351 351
344 342 350 353 350 348 353 351 355 354 353 358 362 364 364 352 352 351 354 355 356 359 355 358 357 355 353 354 349 347 347 346 345 345 350 354 352 352 351 351 351 352 352
343 343 350 352 354 350 349 349 352 350 352 356 357 358 356 350 354 360 355 352 356 356 356 356 353 356 354 354 349 348 346 345 345 345 351 356 352 351 350 350 350 351 351
341 344 351 355 357 356 353 350 352 350 349 352 355 356 353 355 355 356 361 357 358 359 360 354 352 353 354 352 349 349 346 347 345 342 341 354 353 353 353 352 352 351 351
342 345 351 353 357 362 355 358 353 352 350 351 352 356 359 358 359 355 355 359 353 361 361 353 355 352 351 347 350 350 347 347 350 346 343 348 353 352 353 353 353 353 353
343 348 351 352 354 358 359 355 355 350 350 352 355 360 360 360 363 363 356 357 354 357 360 358 354 353 347 346 351 351 349 351 351 353 349 350 351 353 354 353 354 355 355
345 348 350 349 351 354 358 363 361 355 354 356 355 357 361 363 361 365 354 358 356 362 352 355 349 346 346 347 349 349 349 350 352 354 354 356 355 353 354 355 354 355 356
347 349 349 351 351 356 357 357 360 360 360 356 357 359 362 361 361 360 364 357 364 356 354 356 348 356 348 346 347 348 350 349 352 350 356 357 357 357 356 358 359 358 357
349 351 351 350 358 361 355 357 356 356 358 358 359 358 361 360 360 363 357 359 360 359 352 354 363 351 352 349 344 346 348 349 352 351 353 354 357 358 354 360 362 358 362
349 351 352 357 359 358 356 351 354 352 355 355 358 361 361 360 361 364 359 359 360 363 361 358 354 357 346 350 351 344 345 349 350 350 352 353 354 351 355 359 360 361 360
347 351 354 357 360 361 356 358 359 354 358 358 359 361 362 360 362 361 365 360 363 356 360 360 361 353 345 349 346 346 336 341 345 346 350 351 353 350 353 357 359 363 363
348 349 353 357 361 360 357 362 361 361 361 356 358 357 359 361 360 363 363 362 361 365 355 360 357 360 350 348 359 352 341 339 339 345 348 349 353 350 352 355 356 359 362
349 353 355 357 360 361 360 362 357 361 358 353 353 357 360 361 359 360 362 361 365 362 371 363 357 363 361 346 346 350 358 357 345 336 342 347 349 349 352 353 353 357 361
349 351 354 358 360 361 361 364 355 356 359 357 354 360 357 364 361 358 361 362 363 359 363 370 362 366 354 356 352 348 356 349 353 344 337 340 346 348 350 352 352 355 359
348 352 353 358 360 361 361 360 358 353 356 358 356 359 355 357 358 361 361 363 365 364 363 361 364 363 368 364 358 357 351 346 348 351 342 343 342 346 348 350 353 355 356

GFSSE_sfc_thetae_102.txt.gz
Theta_e
347 353 362 360 357 358 359 359 360 360 361 363 364 362 362 362 362 362 364 363 364 364 363 361 361 361 361 360 361 361 361 362 360 361 361 360 358 359 360 358 361 354 359
347 353 362 360 358 359 359 361 362 362 362 362 363 363 362 362 363 364 364 362 361 361 361 361 360 361 360 359 358 359 359 359 361 362 361 362 361 361 361 361 360 356 359
349 354 357 360 358 359 359 361 361 362 362 363 363 362 362 362 362 359 361 361 361 360 360 356 358 359 360 360 359 359 359 358 357 360 364 354 356 361 361 361 360 360 359
349 350 348 362 360 357 360 361 360 361 362 362 362 362 362 361 364 362 362 361 363 362 359 359 359 359 360 359 358 358 358 359 356 358 352 352 353 359 359 359 359 359 359
349 351 358 361 360 360 361 360 360 361 362 362 362 362 362 361 362 361 361 360 361 360 361 360 360 360 359 358 357 357 360 363 361 355 352 353 353 357 360 360 359 359 359
350 354 360 361 361 361 361 360 360 361 362 363 363 362 362 362 361 361 360 359 361 361 361 361 361 359 358 356 356 357 359 365 361 348 348 354 352 360 360 360 360 360 359
348 352 355 362 361 361 361 361 361 362 362 363 363 363 363 362 362 361 361 362 362 362 362 362 360 358 356 355 355 359 360 363 348 347 348 349 352 359 360 359 357 357 357
348 351 355 361 361 361 360 361 361 362 362 362 364 362 364 364 365 363 363 364 362 362 360 358 357 357 355 353 354 355 358 364 351 347 348 350 356 356 356 356 356 356 356
349 349 352 355 359 361 362 360 361 362 361 362 362 363 365 364 363 364 366 363 361 361 362 358 356 355 354 353 351 352 355 364 352 351 346 347 357 354 354 354 353 353 352
348 349 352 354 354 355 356 361 362 361 361 362 363 363 365 365 362 361 364 365 361 361 361 361 358 356 355 354 351 351 354 356 345 345 348 350 356 352 352 351 351 351 352
346 348 351 350 353 358 359 360 362 362 363 363 361 363 364 357 358 358 363 363 361 361 361 361 360 358 355 355 357 356 357 352 342 343 346 355 355 351 351 351 351 352 352
343 345 349 350 349 351 351 360 361 357 357 359 359 360 360 363 360 354 359 361 361 360 361 363 363 362 357 356 353 357 349 345 342 346 352 358 355 352 351 351 351 351 351
342 347 347 350 355 350 356 358 353 358 357 356 362 364 364 355 353 353 355 358 359 358 355 358 360 358 352 352 353 347 345 346 343 343 353 357 357 352 351 351 351 352 351
343 348 346 352 360 353 354 354 356 356 355 350 354 359 364 354 359 349 353 343 353 357 352 355 356 359 354 354 345 346 344 344 343 344 353 357 354 351 350 350 350 350 351
340 348 347 355 362 367 353 352 354 351 353 357 357 358 358 352 362 355 347 351 348 348 353 357 354 355 356 354 349 347 345 346 341 340 347 357 356 354 352 351 351 351 351
344 350 349 351 359 359 363 367 349 349 354 356 360 354 357 353 357 352 348 355 356 352 360 352 349 349 355 350 352 351 348 350 352 341 344 351 358 356 353 353 353 353 354
342 350 349 351 353 361 364 365 362 352 353 356 356 358 354 362 353 349 352 357 360 363 361 364 362 355 351 350 353 354 352 353 354 350 344 345 351 358 357 356 356 356 356
346 350 351 350 352 356 362 366 354 354 349 358 359 363 366 366 359 356 357 359 366 367 365 355 358 355 352 352 349 353 353 352 355 356 355 350 349 347 358 360 360 360 359
349 350 344 353 352 354 366 357 365 355 357 358 361 360 366 367 357 366 354 360 365 364 347 351 353 355 353 347 349 352 353 352 355 353 357 358 357 353 353 358 360 361 362
349 351 350 353 357 361 349 355 360 353 353 356 360 365 369 365 366 364 364 365 358 364 349 362 357 352 360 345 346 348 352 354 355 354 355 355 357 357 355 356 356 357 361
348 351 352 352 359 356 357 350 355 355 354 358 354 365 367 367 368 369 365 365 356 355 362 362 360 359 358 358 359 352 349 351 352 353 354 353 355 356 356 360 362 360 356
347 351 356 360 362 362 363 363 359 352 362 359 362 366 366 361 367 366 363 362 348 356 367 365 366 361 354 356 351 349 342 346 347 348 354 353 353 350 355 361 360 360 361
348 352 353 353 363 363 365 355 359 350 362 352 362 363 363 361 366 363 364 357 361 354 356 363 366 363 355 353 360 352 342 337 343 347 349 353 352 354 354 356 358 361 361
347 351 358 358 361 360 355 355 358 355 343 357 360 349 353 366 362 365 365 360 361 351 350 360 366 364 363 355 353 353 359 350 345 341 348 349 353 351 354 358 355 359 362
347 348 354 360 363 365 364 365 361 359 358 356 354 351 354 361 364 362 366 365 364 360 356 351 360 368 365 360 354 355 354 357 357 341 340 342 349 353 350 354 353 357 360
348 350 354 359 362 366 364 363 361 364 356 354 345 353 354 361 363 368 362 370 369 353 355 363 366 366 368 365 362 356 339 335 331 338 342 343 345 348 352 353 350 355 359

GFSSE_sfc_thetae_105.txt.gz
Theta_e
345 352 362 359 358 358 359 359 359 361 362 362 363 364 363 362 363 364 364 363 363 364 362 362 361 360 360 362 362 361 360 364 365 363 360 359 359 359 361 361 359 353 359
350 356 363 361 360 360 361 361 361 362 363 363 364 364 362 363 362 363 362 361 361 361 361 362 361 360 359 360 360 359 360 360 361 364 362 361 360 360 360 360 359 356 357
350 354 357 362 359 359 361 362 362 362 363 362 363 364 362 360 361 361 361 361 361 361 356 358 360 360 359 360 360 357 357 357 360 361 361 354 355 361 361 360 360 359 359
351 351 352 362 361 360 361 361 362 362 363 362 362 361 361 362 362 362 361 360 360 359 359 358 360 359 359 358 359 358 357 357 362 358 352 352 354 360 360 360 359 359 359
346 352 355 363 362 361 360 361 361 362 362 362 362 362 362 361 362 362 361 361 361 361 361 360 359 358 358 359 359 361 359 361 359 355 351 351 352 358 361 360 360 359 358
350 354 361 362 360 361 360 361 361 361 362 362 362 362 361 362 360 359 360 361 361 361 361 360 358 356 356 358 359 361 364 363 355 349 348 353 352 360 360 360 360 359 358
350 354 357 364 362 361 360 360 361 362 362 362 362 362 361 362 361 361 361 362 362 363 361 358 357 355 355 357 357 361 363 359 345 345 346 348 353 360 358 357 358 358 358
349 352 355 361 362 361 362 361 362 362 362 362 362 363 363 363 364 364 362 362 360 359 357 357 355 354 354 354 355 359 364 358 348 346 347 348 356 357 356 354 356 355 354
350 352 353 354 358 362 361 362 363 362 362 363 362 363 364 362 362 363 362 362 362 358 356 355 354 353 352 352 352 354 361 356 343 345 347 348 357 355 354 353 353 352 352
348 349 351 352 352 353 355 362 362 361 362 362 363 363 364 363 362 361 364 364 361 361 359 355 352 351 351 352 352 354 356 359 344 345 346 349 355 352 352 351 351 352 352
346 347 349 349 350 351 354 358 361 362 362 363 363 363 361 354 353 355 361 363 360 360 359 358 356 355 355 355 357 356 354 347 338 342 344 354 355 351 351 351 352 352 352
343 345 345 348 348 350 354 353 353 356 353 353 352 352 352 350 350 354 358 359 359 357 357 360 360 359 353 350 351 356 349 340 343 346 348 356 355 352 352 352 352 351 351
343 345 344 344 344 344 350 352 351 351 351 350 348 350 349 349 349 349 344 339 342 337 335 340 358 351 343 346 349 348 341 338 340 346 355 360 357 353 352 351 351 351 351
340 340 344 348 343 347 350 350 349 350 339 338 348 352 351 346 346 347 335 334 336 342 336 337 349 353 353 350 346 345 338 339 339 343 350 357 356 352 351 350 350 351 352
339 340 345 347 349 347 347 347 349 350 344 342 349 353 347 350 346 343 337 341 343 345 343 343 346 345 346 343 339 338 338 337 338 344 347 354 357 355 353 352 352 353 353
342 342 345 346 348 352 347 348 348 347 349 350 349 347 348 348 346 346 338 340 344 345 345 344 338 341 343 341 341 339 339 338 334 340 346 349 358 359 357 355 354 355 355
343 343 343 344 348 349 347 347 347 346 351 350 345 339 349 348 342 340 342 342 348 348 348 343 341 344 343 343 340 341 341 341 335 336 340 344 351 359 359 358 360 360 358
344 344 343 345 346 345 346 350 348 346 346 347 349 347 354 351 345 346 345 345 349 355 353 351 349 343 341 341 340 340 343 343 344 337 340 341 343 345 355 360 360 361 361
343 342 344 344 344 347 350 351 348 347 351 350 350 351 352 355 352 354 350 348 355 350 343 345 343 344 341 342 342 342 341 342 344 347 343 343 343 344 345 355 359 360 361
343 341 347 345 344 347 346 346 348 348 349 351 352 352 354 353 354 354 354 347 342 350 348 349 344 351 348 338 345 341 341 343 345 345 347 348 347 346 347 347 351 353 360
340 343 349 346 347 345 344 344 344 341 346 350 349 355 352 353 354 353 352 346 334 347 348 349 350 349 347 347 342 340 337 340 343 345 348 348 347 349 348 350 349 350 352
341 344 348 348 346 348 349 350 348 344 349 350 352 353 353 351 352 355 351 348 347 348 349 349 348 350 344 343 338 340 330 334 340 342 344 347 345 348 348 352 355 353 349
342 347 348 350 350 349 349 348 348 349 349 343 347 349 351 355 353 353 348 348 346 342 335 342 350 349 345 345 344 342 333 331 332 336 336 342 340 344 346 350 352 352 355
342 346 348 351 350 350 351 344 345 343 338 344 345 346 347 353 354 354 346 347 344 333 329 340 354 352 350 346 347 347 345 342 334 328 338 340 340 344 343 347 350 351 352
345 345 347 349 350 350 348 349 346 342 344 347 347 346 341 348 355 353 354 353 346 343 346 347 346 353 352 349 347 343 341 338 333 337 331 335 341 345 345 343 346 343 347
344 349 347 348 348 350 349 348 346 345 345 342 341 345 346 348 349 350 354 352 347 339 335 344 352 352 352 350 347 339 334 331 329 336 332 330 332 340 344 345 344 343 344

GFSSE_sfc_thetae_108.txt.gz
Theta_e
342 349 358 356 356 358 358 358 360 361 361 361 362 362 361 360 360 361 362 362 361 362 361 360 361 361 361 360 359 361 361 361 361 360 359 359 359 360 360 359 358 352 356
347 353 361 359 358 359 359 360 361 361 361 362 361 362 361 360 361 361 361 361 361 361 361 360 360 360 360 359 360 359 360 363 364 362 361 361 361 360 360 359 357 351 354
350 355 356 362 359 359 360 361 361 362 361 363 361 362 362 360 360 361 362 362 359 358 360 360 360 360 359 357 357 357 357 362 361 361 361 354 354 360 360 360 359 359 358
352 352 354 361 360 361 361 362 361 360 361 361 361 361 361 360 362 362 361 358 357 358 359 360 359 359 359 357 358 359 359 361 360 358 351 352 354 360 359 360 359 358 358
347 349 353 361 361 361 361 362 362 362 362 362 361 361 361 360 362 361 358 361 360 360 361 359 358 359 359 359 358 359 360 360 359 355 350 350 351 358 359 359 358 357 358
349 351 359 359 361 360 361 361 362 362 362 361 361 361 361 361 360 360 360 360 360 359 358 358 357 358 358 360 363 360 360 358 355 348 349 354 351 360 359 360 359 358 358
350 354 356 362 361 360 361 361 362 362 362 362 361 361 361 360 361 361 361 360 361 360 358 356 355 356 356 359 365 363 358 355 345 345 347 351 352 360 359 359 358 358 358
351 353 355 361 361 360 361 361 362 362 362 362 362 361 361 361 361 362 361 360 362 361 355 355 354 353 355 357 361 363 357 354 347 345 346 348 357 357 353 353 354 353 354
352 351 352 354 357 361 361 362 362 362 362 362 362 361 361 362 362 361 361 359 356 355 354 352 351 351 352 354 356 363 356 354 343 344 348 347 357 354 353 353 352 352 352
350 350 350 351 352 352 355 362 362 362 362 363 363 362 363 363 361 360 363 362 358 355 353 351 351 351 350 352 354 359 357 353 341 343 346 349 355 352 352 351 351 351 351
347 347 348 349 349 351 353 357 361 363 363 363 362 362 359 352 352 355 359 360 358 357 354 353 352 351 352 354 356 355 354 339 339 342 344 354 355 351 351 351 351 352 351
342 346 345 346 348 351 356 351 352 355 354 354 354 352 350 349 349 355 356 359 358 354 354 357 358 358 356 348 349 354 350 340 340 342 345 355 353 351 351 351 351 351 350
343 345 344 346 347 346 351 350 351 350 349 349 349 349 349 351 348 341 338 339 337 343 333 338 341 355 343 343 344 346 338 340 343 346 351 357 354 352 351 351 351 352 352
341 342 342 342 343 345 349 349 348 348 343 344 347 348 344 344 345 334 332 332 332 338 338 338 339 347 351 351 348 344 336 337 339 346 352 358 358 352 351 351 351 351 352
338 340 342 342 342 347 348 347 348 346 334 342 348 349 350 340 343 337 333 337 339 341 343 342 342 345 346 345 345 341 335 336 337 343 344 355 357 354 352 352 352 353 353
338 341 344 345 346 345 345 345 347 346 341 347 346 346 347 345 343 337 335 337 340 344 343 342 342 336 339 341 335 336 336 336 338 341 344 346 356 356 355 355 354 355 355
340 341 342 343 349 347 344 344 345 345 347 345 342 345 347 344 342 340 339 341 344 347 345 344 343 341 342 342 337 337 337 333 335 338 342 344 347 357 356 357 360 360 357
341 340 341 346 345 344 346 345 342 345 348 346 340 346 350 345 340 340 340 344 346 342 350 348 345 345 343 340 336 338 339 336 333 334 337 340 342 345 351 360 361 361 360
340 339 337 341 344 346 348 346 348 349 345 346 347 349 349 350 350 348 346 345 347 348 341 343 341 342 340 338 339 339 341 340 339 337 336 337 338 341 340 350 359 359 360
341 340 340 340 345 344 345 345 343 346 348 347 348 349 351 348 352 351 347 343 338 347 346 348 345 347 343 338 343 341 339 339 341 343 339 342 340 342 341 344 346 353 359
340 341 341 340 342 340 343 343 338 340 344 346 351 352 350 350 353 350 350 343 342 345 346 347 347 347 345 342 338 338 335 338 340 343 345 345 344 346 344 345 345 347 349
339 342 342 341 342 343 345 346 345 343 347 346 347 350 352 349 351 351 348 345 346 344 340 342 349 348 345 340 338 335 327 333 337 341 343 346 344 346 348 348 351 351 352
339 344 343 343 343 347 347 345 343 345 345 344 346 347 348 353 351 350 347 346 343 339 329 337 348 348 343 345 344 339 330 326 331 333 336 342 341 343 346 350 350 352 352
341 344 344 345 346 347 345 343 341 339 338 342 343 344 346 344 350 351 345 346 342 331 335 342 348 349 346 343 345 345 337 337 332 327 336 340 342 342 343 345 345 350 349
343 344 346 346 346 347 345 344 342 339 341 344 344 343 340 344 350 354 343 348 342 341 344 346 348 348 349 344 340 337 336 333 336 332 326 327 337 341 342 343 344 346 347
342 344 345 344 344 346 345 346 344 341 342 341 341 342 344 346 346 347 351 349 347 343 339 339 348 349 348 347 342 336 332 331 331 335 327 326 328 337 342 342 343 343 346

GFSSE_sfc_thetae_111.txt.gz
Theta_e
338 345 356 356 357 358 359 361 362 361 361 361 359 359 358 360 361 361 362 361 361 359 360 361 361 360 359 361 361 361 361 360 360 360 359 360 360 360 358 357 357 353 358
342 349 357 356 358 359 361 362 361 360 360 360 360 359 359 359 359 360 361 360 362 359 359 360 361 361 360 360 360 361 359 360 360 360 360 361 361 359 358 358 355 351 355
345 352 355 360 358 360 361 361 361 360 360 360 360 361 361 360 359 360 360 360 360 360 360 360 360 359 358 358 358 359 361 360 361 361 360 353 354 360 359 357 357 355 354
349 351 353 361 359 360 360 360 361 361 359 360 360 360 360 359 360 360 356 355 356 359 359 360 359 358 357 358 359 359 360 360 360 358 351 352 354 359 359 358 358 357 357
349 349 352 357 360 360 361 361 361 361 360 360 360 359 360 359 357 357 358 358 358 360 358 359 359 359 359 359 359 361 360 359 359 354 350 350 352 357 359 358 357 357 357
346 349 356 357 360 360 360 360 360 361 361 361 360 360 360 360 360 360 360 359 359 358 358 358 359 359 360 358 359 361 360 359 356 350 351 354 351 358 359 357 357 357 357
347 351 352 360 360 360 361 361 361 361 361 361 360 360 359 359 359 359 360 359 360 359 357 356 357 358 359 360 360 358 356 357 346 347 349 350 353 360 359 357 357 355 356
350 353 354 359 360 360 360 361 361 361 361 361 360 360 360 360 360 360 360 360 360 357 355 355 355 356 358 361 360 357 354 353 348 346 347 349 357 356 353 354 354 354 355
352 351 352 352 355 359 361 361 361 362 361 361 361 361 361 362 361 360 357 356 355 354 354 353 353 354 355 357 359 356 354 353 342 344 347 347 357 353 353 352 351 351 351
348 349 349 350 352 352 355 362 362 362 362 362 360 361 362 361 360 359 360 359 356 354 353 351 352 352 354 355 358 356 354 352 340 343 344 348 355 352 351 350 350 349 350
347 346 347 348 348 351 353 357 361 362 362 361 360 361 357 351 352 354 357 357 358 357 355 354 353 354 355 356 358 355 354 340 340 342 343 353 353 350 349 350 350 350 351
342 345 345 346 348 350 355 352 351 355 355 354 353 350 348 347 348 354 356 358 356 353 351 357 357 359 348 343 345 351 346 337 338 340 342 353 351 350 350 350 350 350 350
342 346 344 345 347 348 350 349 350 349 349 349 349 347 347 348 345 341 339 338 337 343 333 338 338 343 350 344 345 343 341 339 339 341 345 354 351 350 350 350 350 351 352
342 343 343 345 345 345 348 347 348 347 346 344 345 346 344 344 341 334 331 331 332 337 341 342 341 340 343 347 348 344 335 338 339 343 347 353 354 353 352 351 351 351 353
340 341 342 342 341 346 348 347 346 344 341 343 346 347 344 341 341 333 332 336 338 341 341 341 341 341 337 341 339 344 338 336 338 343 345 357 357 353 352 352 352 353 354
338 338 340 341 342 346 345 344 345 343 336 344 345 346 345 339 340 336 334 338 340 342 343 341 341 340 337 339 334 335 335 336 336 338 341 342 354 354 354 354 355 355 356
338 341 341 341 343 345 343 345 344 344 342 344 342 346 346 343 341 337 338 341 343 341 346 346 344 340 340 341 335 335 334 335 336 336 340 341 344 354 355 356 358 360 357
340 340 341 347 345 343 342 343 343 344 344 342 337 345 345 342 342 341 341 342 343 334 346 341 342 343 342 339 335 335 335 332 332 333 335 338 339 343 348 358 361 361 359
340 339 339 342 342 343 344 342 343 343 346 343 338 346 345 343 343 346 346 344 344 345 345 343 342 340 339 337 337 337 339 338 334 334 333 334 335 340 339 345 354 359 359
339 337 338 342 344 346 345 343 345 344 343 343 345 347 347 348 349 347 344 341 342 344 345 345 343 345 340 336 341 340 338 338 340 341 335 337 337 337 339 340 342 347 356
337 336 337 341 340 342 341 338 338 339 342 343 349 347 348 349 351 347 344 335 341 343 342 347 346 343 339 339 336 335 333 337 337 341 343 343 343 342 343 343 344 347 349
336 337 338 341 339 340 342 341 342 342 344 343 346 348 350 348 349 348 345 344 344 338 337 345 346 343 343 342 338 331 326 332 336 338 341 343 343 344 346 348 349 350 351
337 338 338 340 339 342 344 343 343 344 343 342 344 345 347 351 351 348 346 342 341 335 329 340 345 345 340 343 341 336 328 325 329 334 338 341 341 342 346 348 352 352 352
338 341 339 340 343 344 343 341 340 338 337 340 340 342 345 343 349 350 345 343 338 331 338 343 347 347 342 338 340 339 335 336 330 325 334 337 340 340 341 344 347 350 351
341 342 341 342 343 343 342 342 340 337 338 341 341 341 341 341 347 351 342 345 340 340 342 344 346 346 346 340 336 335 334 332 333 330 325 327 333 339 341 342 343 345 349
340 342 342 341 342 343 341 342 341 339 339 340 339 341 341 342 345 346 349 346 344 342 339 341 346 346 346 343 337 332 331 329 329 330 326 324 327 333 339 342 341 342 346

GFSSE_sfc_thetae_114.txt.gz
Theta_e
336 343 350 351 352 356 359 361 362 361 360 360 361 359 360 360 360 361 359 359 359 360 360 361 359 361 361 361 361 360 360 360 360 360 359 359 358 358 358 358 357 354 358
339 346 352 351 351 355 361 361 361 361 360 359 360 359 360 360 359 360 359 360 360 360 360 360 361 361 361 362 360 360 359 359 360 360 360 359 360 359 357 356 356 354 357
342 350 351 356 355 359 361 361 360 360 361 360 359 360 360 360 361 360 359 359 359 360 360 359 359 359 359 359 360 359 359 358 359 359 359 357 356 357 355 356 354 354 353
348 350 351 358 357 360 361 361 360 360 360 361 359 360 360 360 359 357 356 358 360 359 359 359 359 359 358 359 360 361 361 361 360 359 354 355 355 359 359 359 358 358 358
349 350 352 357 359 360 360 360 359 358 360 360 360 360 359 359 358 358 358 358 360 358 359 360 359 359 359 361 360 361 360 359 359 355 354 356 356 358 359 358 357 357 357
346 348 354 357 358 359 359 360 360 360 361 360 360 360 361 359 360 360 359 360 359 358 359 360 360 360 359 362 361 360 360 359 357 353 355 357 356 359 358 358 357 358 357
345 349 353 359 360 360 360 360 360 361 360 360 360 361 360 360 360 359 359 360 359 358 358 359 359 359 360 360 358 357 358 358 351 353 353 355 357 359 358 357 355 356 357
348 351 352 357 358 360 359 360 360 361 360 359 360 359 359 359 360 360 361 360 357 357 357 357 357 359 360 360 357 355 355 355 350 351 352 353 356 356 355 355 355 355 356
352 351 351 354 355 360 361 361 361 361 360 360 361 360 360 360 361 358 357 356 355 355 355 355 356 357 358 359 357 356 353 353 347 348 350 351 356 353 353 352 352 352 351
349 350 349 350 352 353 355 361 361 361 361 360 360 361 361 361 361 361 360 358 355 354 354 354 355 356 357 358 358 356 353 352 345 347 349 352 355 351 352 351 351 350 350
347 347 348 349 350 351 354 357 360 361 361 359 359 362 356 352 354 355 358 358 359 357 356 355 355 356 357 355 356 355 354 344 344 346 347 353 352 350 350 350 350 351 351
343 345 346 347 349 351 357 350 352 356 351 354 353 350 350 349 352 354 358 357 355 350 352 353 354 357 350 345 347 352 345 344 343 344 346 351 349 349 349 349 349 350 350
342 346 345 346 348 349 349 350 351 351 351 351 350 349 350 349 344 342 341 339 338 344 340 342 343 344 346 350 351 348 348 341 341 344 346 352 351 350 350 350 350 351 352
341 344 345 346 347 347 350 349 348 348 347 347 349 349 348 346 341 336 333 335 337 343 345 346 346 346 345 347 348 350 340 343 342 344 347 352 353 352 351 350 350 351 352
340 342 343 345 345 347 349 348 348 347 345 346 347 350 347 347 342 337 338 342 344 346 347 346 345 344 342 344 342 348 340 342 343 345 349 354 355 355 353 351 352 353 354
340 340 342 343 344 346 347 347 347 343 342 345 348 349 346 345 343 339 339 344 346 347 347 347 346 344 343 344 341 341 344 341 342 343 346 346 355 354 354 354 354 356 356
337 339 340 341 342 345 346 346 346 345 340 346 347 348 347 343 344 341 341 345 347 343 350 349 348 347 348 347 343 341 340 340 341 340 342 343 345 352 355 355 357 360 358
338 339 341 344 342 344 344 345 346 345 343 346 343 348 348 346 345 343 344 346 347 342 350 349 349 347 347 346 343 342 341 339 339 339 339 342 343 343 346 352 360 361 359
339 339 340 343 342 343 344 344 344 346 346 345 342 348 346 345 345 346 349 348 350 351 351 349 351 347 346 343 343 343 344 343 340 337 338 340 340 343 343 345 350 355 357
339 339 340 342 343 344 344 344 345 345 346 345 343 348 347 346 350 351 349 346 349 351 351 350 350 349 345 344 342 343 343 344 345 347 346 345 343 345 345 347 348 349 354
338 337 339 342 343 343 341 340 341 341 344 345 348 350 349 349 352 350 348 342 349 349 347 352 351 347 347 345 345 342 341 342 344 347 346 347 349 350 350 351 351 353 353
337 336 339 341 341 342 342 341 343 344 346 347 349 351 351 350 352 350 347 346 349 344 347 352 351 348 347 347 345 336 333 337 341 343 347 346 347 348 350 353 355 355 358
336 336 338 341 340 343 344 344 344 345 345 345 347 348 350 352 352 352 349 349 347 341 345 350 353 350 347 345 345 343 337 333 336 344 344 345 345 348 350 353 355 357 357
337 338 339 341 340 343 344 343 343 341 339 342 345 346 349 348 351 350 350 346 343 338 347 351 353 352 348 346 345 341 342 344 336 334 342 342 344 345 347 349 351 352 354
337 339 339 341 341 344 343 343 341 340 341 344 345 345 347 346 351 353 349 349 343 347 349 352 353 353 352 345 344 343 341 340 339 339 335 337 340 343 348 349 348 350 351
339 341 340 340 342 343 343 342 342 340 340 342 343 343 344 346 348 351 351 346 349 348 347 349 353 353 352 347 342 341 341 341 339 340 337 334 335 342 344 347 348 349 352

GFSSE_sfc_thetae_117.txt.gz
Theta_e
340 343 352 354 354 354 355 360 361 361 361 363 362 360 361 360 360 360 361 360 360 361 361 361 361 362 362 361 360 360 360 361 360 360 359 359 359 359 359 358 359 354 358
342 346 350 351 353 356 360 360 361 360 359 359 361 361 360 360 360 359 361 360 360 361 362 362 361 362 362 361 360 359 359 359 360 359 360 360 359 357 358 358 358 358 359
342 348 350 350 352 357 360 360 361 361 359 358 360 360 360 360 360 360 359 361 361 360 360 360 360 361 361 361 359 360 360 361 360 360 359 355 352 355 354 354 354 354 354
346 349 350 355 355 354 360 360 360 361 361 360 361 360 360 360 358 358 360 361 360 359 359 359 359 359 361 361 362 361 361 361 360 359 357 356 355 359 359 359 359 359 358
350 351 353 357 358 357 360 359 359 360 359 361 360 360 359 359 357 357 359 361 360 360 359 358 358 359 361 361 361 360 360 360 358 357 356 357 356 358 359 358 358 358 357
351 351 356 359 359 359 360 360 359 360 361 360 361 360 359 361 360 360 360 359 360 360 361 360 360 361 361 361 360 359 359 359 358 357 356 358 359 359 359 359 359 358 357
350 352 351 359 358 360 359 361 360 360 361 361 359 360 359 360 360 359 360 359 359 360 360 359 360 361 360 358 357 359 358 358 357 356 357 358 359 360 358 357 358 358 354
347 354 355 358 359 359 359 360 360 360 360 360 360 360 360 360 359 360 359 357 358 359 358 358 360 360 361 358 355 356 356 355 355 357 355 354 357 357 357 356 356 357 356
351 351 356 355 358 359 360 360 360 360 360 360 360 360 360 359 359 358 357 356 357 357 357 358 358 360 359 358 357 353 354 353 354 356 353 352 355 354 353 353 353 352 352
353 352 356 355 357 358 359 360 361 360 360 359 361 359 359 361 360 359 360 359 356 356 356 356 356 357 359 359 357 355 353 349 344 349 350 351 354 352 352 351 351 352 352
351 351 354 354 357 361 361 360 361 359 360 360 361 361 361 357 357 355 360 358 357 356 355 356 356 357 356 357 356 356 354 351 343 345 348 351 350 350 351 351 351 351 351
346 350 352 355 355 358 358 361 362 360 363 362 361 361 358 358 360 358 357 355 354 351 354 354 354 354 353 356 356 355 356 353 347 345 347 350 349 349 349 350 350 350 351
346 349 353 356 358 359 359 358 358 358 359 360 360 359 359 358 353 351 349 349 350 348 351 352 353 355 354 357 360 359 356 353 348 345 346 350 350 350 350 350 350 351 353
345 348 352 354 357 359 357 358 357 355 355 354 357 359 358 352 350 349 345 348 352 353 355 357 356 355 354 354 354 358 350 350 346 346 346 350 351 352 352 350 350 351 353
344 347 350 354 356 358 358 356 357 354 351 354 358 360 360 357 353 348 351 354 356 358 358 358 356 354 355 352 350 354 350 348 347 346 349 352 354 355 354 353 353 355 356
343 346 350 352 356 357 356 358 356 354 353 355 358 360 358 358 356 352 351 355 357 358 360 359 359 357 356 351 350 351 352 348 347 347 348 349 355 356 353 354 356 357 357
344 347 349 350 353 355 356 357 357 355 353 356 358 360 357 355 356 357 353 356 355 352 361 360 360 361 358 350 351 349 349 348 346 346 347 349 350 349 353 355 357 358 359
345 348 350 347 350 352 355 356 356 355 353 356 358 359 358 355 357 356 356 356 354 357 362 361 360 357 355 352 351 350 350 350 350 349 349 349 352 349 349 349 352 358 359
347 348 349 350 350 352 356 356 356 356 352 357 355 359 358 356 355 357 358 358 362 363 363 361 362 359 352 351 350 352 353 354 353 348 351 352 352 349 352 354 352 354 356
348 349 350 350 353 355 355 356 355 355 355 355 355 359 356 354 357 362 359 358 363 363 362 360 361 359 356 355 348 350 355 356 356 357 356 356 357 354 356 358 357 357 355
347 348 350 350 353 353 352 351 351 357 353 354 354 359 358 360 361 363 359 356 362 360 362 364 361 359 356 358 353 352 353 355 354 355 356 356 356 358 359 359 361 360 361
346 348 350 351 354 354 352 353 353 354 354 355 358 360 361 359 362 360 360 356 362 358 363 364 363 357 357 357 352 348 342 345 350 353 356 355 355 356 356 359 361 363 365
345 347 349 353 355 355 355 354 355 356 360 354 356 357 359 360 361 360 360 361 360 356 359 364 363 360 354 354 356 352 343 340 348 353 354 357 356 357 360 360 361 363 364
344 348 350 353 355 355 356 355 357 351 348 357 364 363 358 361 361 359 359 358 359 351 359 362 363 361 361 353 354 352 356 354 345 342 351 354 354 353 357 359 358 358 360
345 346 348 352 354 355 356 357 352 358 352 356 355 359 359 358 360 360 360 359 355 353 361 363 364 364 359 354 353 353 353 350 351 346 340 346 349 350 353 356 357 357 358
345 345 346 349 352 354 356 355 356 356 356 352 356 352 356 355 355 361 361 358 359 359 358 362 365 362 362 357 355 354 352 348 347 346 343 348 344 351 350 350 352 354 358

GFSSE_sfc_thetae_120.txt.gz
Theta_e
345 350 352 355 356 355 356 355 359 359 361 361 361 361 360 360 361 362 361 361 361 362 362 363 363 362 362 361 360 361 360 360 360 360 360 361 360 359 359 358 362 357 360
344 347 353 353 357 356 356 357 359 361 361 361 361 360 361 360 361 361 361 361 361 362 362 362 361 363 362 361 360 360 360 361 361 361 361 360 360 359 359 361 363 358 358
342 347 349 353 357 359 359 360 360 359 360 362 361 361 360 360 361 361 362 362 361 362 361 361 362 362 361 361 361 361 361 360 360 360 361 350 352 355 355 356 357 357 358
344 347 348 354 356 359 360 361 361 361 361 361 361 361 360 360 360 362 361 361 359 360 361 360 361 362 363 363 363 362 361 361 359 358 354 353 355 359 359 359 359 358 358
347 349 354 357 357 360 360 360 360 360 361 360 359 360 358 358 358 361 361 360 359 358 359 360 361 361 362 362 361 361 361 359 357 359 354 356 356 359 359 358 359 358 359
350 351 355 359 358 360 360 359 360 361 361 361 359 360 361 361 362 361 361 360 361 361 362 361 363 361 361 360 360 360 359 357 362 354 354 358 358 358 359 359 358 359 358
347 350 352 359 359 360 359 360 360 361 361 361 361 360 360 360 360 361 360 360 361 360 360 361 361 360 358 358 359 359 358 356 353 356 355 356 358 359 357 359 359 355 355
345 347 353 359 359 359 359 358 360 360 359 360 361 359 360 360 360 360 358 360 360 360 360 361 362 362 358 356 357 357 357 356 354 351 352 353 358 358 358 357 358 357 356
349 350 353 355 360 360 359 360 361 360 359 360 360 359 360 360 360 357 358 359 359 359 360 360 361 360 359 357 353 354 353 352 351 352 348 350 355 354 353 352 352 352 351
348 351 353 354 354 357 358 359 361 361 360 361 360 360 360 359 357 357 360 358 358 358 358 359 359 361 360 358 356 354 350 349 345 348 347 351 353 353 352 351 352 353 353
346 349 352 352 356 360 360 359 359 361 360 360 359 358 357 351 353 356 359 356 356 356 356 356 358 358 358 358 358 356 356 343 342 345 345 351 352 351 351 351 349 349 350
343 345 350 352 353 356 355 360 362 357 356 356 356 356 352 354 357 354 356 355 356 357 357 357 357 355 354 356 355 358 350 347 344 346 346 352 350 350 349 349 350 350 351
344 345 350 352 356 356 356 355 356 354 355 356 358 354 356 353 353 352 352 351 353 352 352 353 354 356 355 354 354 348 348 348 345 346 346 351 351 350 350 349 350 352 354
344 346 350 352 356 357 355 353 353 353 353 351 355 358 357 351 352 353 350 352 355 354 356 359 355 358 356 355 352 349 348 346 345 347 346 351 351 352 353 351 351 352 354
343 346 349 353 358 358 357 354 353 352 351 353 355 358 357 353 351 353 354 355 359 358 358 360 359 356 355 352 353 351 347 347 346 349 349 351 352 354 355 354 354 355 357
344 347 349 352 357 358 356 357 353 352 353 354 355 357 360 355 357 353 356 355 358 361 361 360 358 356 352 351 354 352 348 348 349 351 351 352 356 357 355 355 356 357 359
344 348 349 352 356 357 357 361 354 353 352 353 355 361 358 359 359 363 356 357 357 362 364 361 359 357 350 350 352 353 352 351 349 350 352 352 351 351 354 356 357 359 359
345 348 350 349 353 357 358 358 354 353 354 355 358 358 360 360 362 362 357 357 361 364 361 357 355 351 351 350 349 349 352 353 355 354 354 357 358 356 353 356 355 356 357
346 349 349 350 352 356 359 357 357 359 355 357 357 358 362 359 360 362 357 359 368 365 364 360 355 354 350 349 348 351 352 352 354 352 356 358 358 356 359 357 355 356 356
347 350 350 352 355 358 358 359 356 354 355 356 356 357 360 359 360 363 358 364 364 361 361 360 362 360 357 355 348 349 354 353 356 358 356 355 359 360 359 364 362 361 359
348 350 353 354 358 356 354 352 351 349 354 354 355 360 361 362 363 365 358 361 365 362 363 366 360 360 355 361 351 350 351 353 352 353 355 355 357 357 359 362 363 362 362
347 350 353 355 358 359 357 358 354 352 353 354 355 359 360 362 363 362 365 360 364 360 368 366 365 355 357 362 351 349 339 344 346 350 355 355 355 357 356 359 362 366 367
347 349 352 356 358 359 359 357 357 364 358 357 355 355 358 361 362 364 364 363 365 361 359 366 364 361 352 361 362 351 340 338 345 350 354 354 361 357 359 361 362 367 369
347 350 352 356 359 359 360 361 359 351 347 356 356 357 360 360 361 362 362 363 365 360 363 364 364 364 363 355 357 358 360 358 342 341 350 353 356 355 360 358 360 362 366
348 349 352 356 360 360 362 362 352 352 350 352 353 358 360 363 362 359 364 364 363 356 362 366 364 367 361 355 351 356 358 353 357 345 339 347 352 354 353 355 357 357 362
348 349 351 355 358 358 361 358 358 355 353 353 353 351 355 354 356 362 362 365 364 362 361 361 366 364 364 361 357 356 351 347 346 345 342 345 346 351 353 356 355 357 362

GFSSE_sfc_thetae_123.txt.gz
Theta_e
345 350 356 353 353 353 353 355 354 358 358 358 360 361 361 360 361 361 361 361 361 362 362 363 362 362 362 361 362 361 361 361 361 361 361 361 360 360 359 357 365 357 361
347 352 357 357 355 355 353 353 357 359 359 360 360 360 361 361 360 361 361 361 362 362 362 362 362 362 362 361 361 361 361 362 361 361 360 361 360 360 360 362 362 357 360
344 350 353 359 356 355 355 355 359 359 360 360 360 361 361 361 361 362 362 361 362 362 362 362 362 362 361 361 361 361 361 361 361 361 363 350 352 356 357 359 360 360 359
344 349 351 358 358 356 356 357 361 360 360 360 361 360 361 361 362 361 359 360 361 361 361 363 362 362 362 361 361 361 360 360 359 363 355 352 354 360 359 357 356 356 357
346 349 355 359 361 359 359 359 361 360 360 361 360 357 358 361 362 360 359 359 360 362 361 361 362 362 362 362 361 360 358 357 357 356 355 355 354 358 358 359 360 359 358
348 351 357 360 362 361 360 360 360 361 359 359 361 362 361 361 362 362 361 361 362 360 362 362 361 361 360 360 360 358 357 360 361 356 355 358 358 359 359 359 359 359 358
346 351 354 360 362 361 360 360 361 360 361 362 361 361 360 362 360 361 361 361 361 362 363 361 359 358 359 359 359 357 358 360 356 357 355 355 358 359 360 359 356 355 355
343 349 352 359 361 360 360 359 360 360 359 361 360 360 360 361 361 359 361 361 360 362 363 363 360 358 356 357 357 355 357 359 351 353 352 354 358 358 358 358 358 356 355
345 346 350 353 360 360 360 360 360 359 360 360 361 361 361 361 359 358 361 360 360 361 362 361 361 360 358 354 353 349 351 356 350 350 349 349 355 353 353 352 352 351 350
347 348 349 350 353 355 356 360 360 360 361 361 360 360 360 358 357 358 360 360 359 360 360 361 361 360 359 357 354 353 350 352 346 348 346 350 355 352 352 352 352 352 351
346 348 349 350 355 361 357 358 360 361 362 360 358 359 359 351 353 356 359 358 357 357 357 357 358 360 360 359 359 359 358 347 344 346 344 354 353 351 351 350 349 349 350
342 345 346 349 351 353 351 359 359 357 357 355 353 356 351 356 353 353 359 359 358 358 359 359 358 358 359 358 357 361 354 345 345 346 345 353 351 350 349 349 349 350 352
341 346 347 349 355 352 354 355 355 351 350 352 355 354 353 349 352 348 351 353 352 356 353 356 356 356 354 352 351 346 348 345 345 345 348 352 351 350 349 349 350 352 354
342 345 347 351 355 356 352 350 353 351 349 349 352 355 354 349 351 351 350 352 354 350 353 355 350 354 353 353 349 347 346 344 346 346 348 352 352 352 353 352 352 353 355
341 346 347 354 360 363 356 357 354 350 349 349 352 354 352 349 352 352 353 352 360 350 350 352 353 353 353 352 350 347 346 346 347 347 347 353 353 354 355 355 356 356 358
344 346 349 353 359 356 360 360 353 352 352 353 352 354 359 353 356 352 353 351 351 354 352 352 356 354 350 350 349 347 346 347 350 350 349 350 355 356 356 356 357 358 359
345 348 348 352 355 356 355 355 352 349 348 350 353 359 357 357 359 358 353 358 351 357 359 356 356 355 349 347 351 350 348 349 350 352 350 351 353 359 358 358 359 359 360
346 348 350 350 352 354 356 357 352 354 351 355 354 355 358 359 360 363 353 353 355 358 353 351 352 350 348 346 347 349 349 350 352 353 353 354 354 353 357 362 361 362 359
347 349 350 352 354 356 359 358 360 356 356 354 358 354 359 359 360 361 358 356 364 353 353 354 351 351 349 346 346 348 348 349 352 351 354 355 354 353 356 358 361 360 360
348 350 351 351 357 359 356 362 357 353 354 354 353 358 359 357 360 363 356 360 365 353 359 364 367 355 353 349 345 346 348 348 351 352 353 353 353 356 356 360 361 360 361
346 348 350 352 358 357 352 349 351 349 355 354 356 360 360 359 362 365 356 360 361 361 359 360 358 360 354 354 348 346 348 349 349 350 350 350 354 352 355 356 361 364 360
345 349 351 354 358 360 354 365 358 357 356 352 359 359 359 360 363 361 366 358 362 357 366 363 360 356 351 355 352 344 339 341 343 346 350 349 351 352 352 356 360 363 367
345 348 352 356 358 359 361 356 359 364 360 352 353 354 357 360 361 363 363 363 363 364 358 362 364 364 348 353 361 351 342 338 342 344 349 349 354 352 353 355 358 362 365
346 348 352 356 358 359 362 359 360 351 347 349 352 356 356 360 360 360 362 362 365 361 365 360 358 365 364 353 351 350 359 355 342 337 335 343 353 352 355 355 354 357 361
347 348 350 356 361 362 362 365 355 356 354 355 356 358 362 361 361 358 362 362 363 358 363 365 364 365 362 354 350 352 356 349 354 343 338 340 343 347 353 354 352 354 358
347 349 350 356 361 361 360 358 362 361 354 350 354 354 354 354 356 360 360 363 364 363 362 361 365 365 365 364 358 356 347 346 343 344 340 345 340 348 351 353 354 354 356

GFSSE_sfc_thetae_126.txt.gz
Theta_e
343 347 357 355 354 355 354 352 351 354 355 357 359 360 361 361 360 361 361 361 362 362 362 363 363 363 363 362 362 362 361 362 362 361 361 361 362 362 362 361 363 356 362
344 348 359 356 355 355 355 354 355 358 359 359 360 361 361 361 361 361 362 362 362 362 362 362 362 362 363 362 361 362 361 363 365 362 361 362 360 360 361 362 363 358 361
344 350 355 359 355 356 356 354 358 361 360 359 360 360 361 362 362 361 361 362 361 362 362 362 362 362 362 362 362 362 362 362 363 361 364 349 351 357 360 361 361 359 359
345 349 352 359 357 357 358 357 359 360 361 360 361 361 362 362 361 360 361 362 362 362 363 362 362 362 362 362 361 359 359 360 360 358 352 351 353 359 358 356 356 356 356
345 349 354 362 359 358 358 359 359 361 361 361 360 360 361 361 360 360 361 362 362 362 362 362 363 362 362 361 360 360 359 360 358 354 353 351 351 357 359 359 360 358 360
349 351 361 362 360 357 359 360 360 360 360 362 363 360 362 362 361 362 360 361 362 362 362 362 361 361 360 359 358 357 358 360 360 355 354 357 356 359 360 360 360 359 358
348 352 357 364 364 360 361 359 360 360 361 361 362 362 361 363 361 362 362 362 362 362 359 358 359 360 359 358 356 356 359 361 357 354 354 354 355 362 360 357 355 355 355
347 348 354 363 362 361 361 360 361 361 361 361 363 361 361 364 363 362 361 362 362 363 362 359 356 357 357 354 355 356 357 360 357 352 354 355 359 359 359 359 357 355 356
348 346 352 355 359 361 361 360 359 361 361 361 361 363 361 361 361 361 361 362 362 361 361 361 360 357 355 351 349 350 354 358 353 349 349 349 358 354 353 352 352 351 350
347 345 349 353 353 354 356 360 360 362 360 361 362 362 361 359 360 361 364 362 360 360 361 361 360 359 357 356 354 352 354 355 346 345 345 351 356 353 352 353 352 352 351
345 347 345 349 355 358 357 358 361 362 362 361 360 361 362 353 355 356 362 360 359 359 359 361 361 361 360 359 359 358 357 351 344 342 346 356 356 352 352 351 350 350 351
343 343 346 350 352 353 350 359 361 360 356 356 357 359 358 354 358 355 358 359 358 359 359 361 362 361 361 356 355 361 357 347 344 343 347 356 355 351 350 350 350 351 352
341 341 344 352 351 351 355 357 353 353 355 355 363 355 357 350 350 349 354 354 355 360 354 358 357 355 354 356 355 353 347 346 343 343 351 357 356 352 351 349 350 352 353
344 343 346 349 344 344 355 353 356 352 350 350 360 361 362 354 357 354 353 355 356 356 356 355 355 357 356 356 349 346 345 344 344 344 350 357 357 354 353 353 353 354 356
341 345 349 352 344 347 354 350 352 353 349 350 355 359 355 353 355 358 357 357 356 350 357 356 359 356 357 353 352 349 345 347 345 344 346 356 357 356 357 357 356 357 358
343 344 351 353 360 359 354 366 356 348 349 352 359 361 360 355 362 358 360 359 351 357 353 359 363 362 357 350 351 348 348 349 351 348 347 351 358 359 359 358 359 359 360
344 347 353 352 355 362 364 363 351 347 353 354 352 367 363 360 366 364 359 359 360 363 364 359 360 360 352 350 352 352 350 350 351 352 349 348 351 360 362 362 362 363 363
345 350 353 348 354 355 360 364 365 345 355 356 357 360 362 366 366 366 360 355 360 365 362 358 358 355 352 349 352 351 351 352 353 354 355 351 351 350 360 363 363 364 365
347 350 352 349 352 360 362 363 355 357 350 350 349 358 366 364 365 367 356 362 368 362 357 361 356 356 352 349 347 351 352 352 355 349 354 354 354 353 353 358 362 363 364
349 351 354 352 356 351 360 365 352 358 349 354 353 362 365 366 364 368 354 364 369 356 350 352 367 356 360 353 344 345 348 352 353 354 351 353 356 355 355 354 354 358 362
347 349 354 350 353 354 358 354 348 357 356 351 347 366 366 364 367 371 367 367 346 339 350 351 360 360 357 356 355 350 349 351 351 352 351 352 350 352 351 358 360 363 360
346 349 355 356 358 353 357 361 359 351 356 352 360 364 363 365 370 367 364 360 348 340 347 346 342 350 351 356 354 347 343 345 336 338 333 335 339 341 346 354 355 364 366
345 349 353 357 359 362 362 353 358 362 355 346 357 357 361 362 366 363 367 364 352 353 358 345 341 348 341 345 354 351 339 329 327 334 339 338 338 340 344 351 354 350 365
345 350 353 358 359 361 364 364 355 354 349 354 360 363 361 359 364 363 368 368 368 363 351 361 359 336 338 339 351 344 346 333 322 322 338 337 340 343 338 343 352 356 357
346 348 354 358 359 360 362 365 359 360 359 357 347 364 368 368 368 359 366 368 367 366 366 365 364 363 361 356 349 335 333 341 337 339 331 331 340 341 344 344 350 357 358
344 346 353 357 357 361 361 359 362 359 357 344 356 349 359 359 360 364 367 370 371 368 367 365 368 368 367 366 363 361 356 350 343 342 340 331 336 343 345 348 349 348 360

GFSSE_sfc_thetae_129.txt.gz
Theta_e
341 345 354 354 354 353 353 352 353 354 356 357 361 361 361 361 362 362 362 363 363 363 362 363 363 365 363 363 362 363 362 362 362 361 362 360 362 362 362 361 361 357 361
343 347 356 357 354 353 354 355 354 357 357 360 359 361 362 362 362 363 363 363 362 362 363 363 362 363 362 362 362 362 362 363 364 362 362 361 361 361 364 362 361 358 361
344 349 352 358 357 355 355 353 352 358 360 360 361 362 362 362 362 362 362 362 362 362 362 363 362 363 362 362 362 362 361 361 363 364 358 349 352 361 362 360 359 359 359
347 352 353 359 359 358 355 358 359 361 361 361 361 362 362 361 362 361 362 362 363 361 361 362 363 363 362 362 360 360 360 359 359 361 346 350 351 358 356 357 356 356 357
346 350 352 358 358 359 358 359 360 362 361 361 361 361 361 361 361 362 362 363 362 363 363 363 363 362 361 360 360 360 360 358 358 355 347 347 350 357 360 361 359 359 358
345 349 358 360 358 359 360 360 360 361 360 361 362 362 361 360 361 361 363 362 363 363 363 362 361 361 361 360 359 357 358 362 360 351 353 357 352 360 360 359 359 358 357
348 352 355 362 359 361 359 360 360 360 361 361 363 362 361 362 362 363 363 363 361 360 361 360 359 358 358 359 357 356 358 362 350 350 350 350 354 361 356 356 357 356 356
345 352 355 362 361 361 359 360 361 360 361 361 362 362 362 362 363 364 362 363 361 359 356 357 357 357 356 355 355 356 356 361 354 352 353 352 359 361 359 357 356 356 356
342 352 353 354 357 361 361 361 362 361 361 361 361 362 362 362 362 363 363 363 363 360 360 357 355 353 351 350 352 355 354 356 348 349 351 350 359 356 355 352 351 351 351
347 350 350 352 352 352 354 360 362 361 361 361 362 362 360 362 362 361 363 364 361 361 361 359 358 356 354 354 356 357 355 355 341 343 346 348 357 353 352 352 353 352 352
340 343 349 349 349 349 352 355 361 361 362 362 361 361 361 350 352 355 359 361 361 361 361 361 360 359 358 359 359 359 358 347 338 343 346 355 356 353 353 352 351 351 352
337 345 347 349 350 350 354 353 354 356 353 353 353 353 352 348 349 353 356 360 360 360 359 360 361 362 361 353 351 359 354 350 339 342 347 357 357 352 351 351 352 352 353
339 339 342 345 349 345 350 352 348 351 350 350 351 353 350 351 351 351 350 351 350 358 352 357 357 356 354 353 353 349 351 338 338 341 351 357 357 353 353 352 352 353 355
335 336 342 347 345 343 349 343 338 347 347 343 347 346 344 341 342 342 345 348 347 347 349 348 349 351 351 351 351 348 341 338 338 342 350 358 358 356 354 354 355 356 357
338 339 342 344 338 347 349 346 346 346 342 344 345 346 349 345 341 344 346 347 348 348 348 345 345 345 344 341 342 338 338 337 338 341 345 357 358 359 358 358 357 358 359
339 342 344 337 343 347 343 344 345 346 342 342 344 350 350 344 342 347 344 347 347 347 348 346 347 348 348 337 339 338 337 339 339 340 342 349 359 360 360 360 360 361 362
343 347 346 345 347 344 341 346 336 344 346 347 350 348 347 347 349 350 347 348 350 348 346 343 346 350 342 342 337 340 340 340 342 340 341 343 350 360 361 362 364 364 364
344 345 345 348 349 347 346 344 345 342 346 347 348 349 350 351 349 350 350 347 347 350 348 350 348 344 342 338 338 341 339 341 341 343 344 343 344 346 357 363 364 364 365
345 345 343 346 346 345 346 349 346 347 345 344 345 345 349 351 352 353 349 353 352 348 348 346 352 352 344 339 341 342 341 341 341 345 344 344 345 346 347 354 362 363 365
344 345 345 347 349 347 351 349 345 346 342 346 346 346 352 353 354 352 348 343 340 342 343 343 350 348 348 347 343 341 341 342 343 343 341 343 339 344 348 345 347 349 357
343 342 342 344 346 342 345 345 345 344 340 345 348 353 351 350 352 355 351 342 337 339 340 343 345 342 343 338 347 343 340 336 335 335 336 337 340 345 345 351 348 347 346
341 341 345 349 347 346 349 345 345 344 345 346 348 353 352 350 355 355 346 344 334 334 336 343 341 335 333 343 342 335 335 338 332 336 339 340 336 343 348 348 346 348 349
340 341 345 349 348 346 349 346 349 347 340 341 345 349 350 355 352 353 350 346 345 346 346 341 338 338 335 336 347 340 333 326 327 332 333 339 338 339 341 344 349 350 347
340 343 347 348 348 351 349 345 344 340 339 339 342 347 347 350 353 354 355 354 349 349 336 347 348 341 333 332 336 346 337 329 321 325 332 338 338 337 338 339 345 344 348
342 343 347 347 348 349 349 348 344 343 344 345 345 352 348 350 352 352 353 352 349 347 349 349 347 341 343 337 329 337 333 334 336 333 326 328 336 338 341 341 341 340 346
342 343 347 345 345 349 348 348 347 344 340 342 347 346 348 349 350 351 354 353 353 354 352 352 352 351 351 347 341 338 334 340 334 335 331 331 329 337 339 341 343 346 349